M I D A S
Marine Information and Data Acquisition System
Tripno 1999 of the Zeeleeuw from 2010-12-06 07:47:39 to 2010-12-06 18:22:24
Back to CruiseResearch ActivitiesStationsMapUnderway DataData graphs

EquipmentUnitsComment
TimeDGPSUTC
LatitudeDGPSDM.mWGS84
LongitudeDGPSDM.mWGS84
TemperatureSBE03/SBE38deg celciusITS90
ConductivitySBE21S/mITS90
SalinitySBE21 Practical Salinity Units
ChlorophylAChelsea fluorimeterg/lCalibrated in Aceton
Missing or incorrect values are displayed as -999
Sea surface data collected by the RV Zeeleeuw from 2010-12-06 07:35:11 to 2010-12-06 18:27:10
                                                                                    Next 1000 lines
Time Latitude Longitude Temperature Conductivity Salinity ChlorophylA
2010-12-06 07:35:21 51°13.662 2°55.957 11.6179 0.074734 0.38148 -0.547855
2010-12-06 07:35:26 51°13.662 2°55.958 11.6178 0.074734 0.381474 -0.58268
2010-12-06 07:35:31 51°13.663 2°55.958 11.6178 0.074734 0.38148 -0.617504
2010-12-06 07:35:36 51°13.663 2°55.958 11.6179 0.074734 0.381485 -0.58268
2010-12-06 07:35:41 51°13.663 2°55.957 11.6178 0.074734 0.381491 -0.58268
2010-12-06 07:35:45 51°13.663 2°55.957 11.6173 0.074734 0.381502 -0.58268
2010-12-06 07:35:51 51°13.664 2°55.957 11.6173 0.074734 0.381502 -0.58268
2010-12-06 07:35:56 51°13.664 2°55.957 11.6175 0.074734 0.381496 -0.58268
2010-12-06 07:36:01 51°13.664 2°55.957 11.6174 0.074734 0.381502 -0.58268
2010-12-06 07:36:05 51°13.664 2°55.957 11.6173 0.074734 0.381508 -0.547855
2010-12-06 07:36:11 51°13.664 2°55.957 11.6174 0.074734 0.381513 -0.547855
2010-12-06 07:36:16 51°13.664 2°55.956 11.6176 0.074734 0.381513 -0.58268
2010-12-06 07:36:21 51°13.664 2°55.956 11.6173 0.074734 0.381513 -0.58268
2010-12-06 07:36:25 51°13.664 2°55.957 11.6173 0.074734 0.381513 -0.58268
2010-12-06 07:36:31 51°13.663 2°55.958 11.6173 0.074734 0.381519 -0.547855
2010-12-06 07:36:36 51°13.663 2°55.957 11.6172 0.074734 0.38153 -0.547855
2010-12-06 07:36:41 51°13.663 2°55.958 11.6174 0.074734 0.38153 -0.547855
2010-12-06 07:36:46 51°13.663 2°55.958 11.6174 0.074734 0.381536 -0.58268
2010-12-06 07:36:51 51°13.663 2°55.958 11.6172 0.074734 0.381536 -0.58268
2010-12-06 07:36:56 51°13.663 2°55.958 11.6175 0.074734 0.381541 -0.617504
2010-12-06 07:37:01 51°13.663 2°55.957 11.6174 0.074734 0.381547 -0.547855
2010-12-06 07:37:06 51°13.662 2°55.957 11.6179 0.074734 0.381547 -0.58268
2010-12-06 07:37:11 51°13.66 2°55.957 11.6177 0.074734 0.381558 -0.58268
2010-12-06 07:37:16 51°13.659 2°55.957 11.6173 0.07463 0.38101 -0.58268
2010-12-06 07:37:21 51°13.659 2°55.956 11.6172 0.07463 0.38101 -0.58268
2010-12-06 07:37:26 51°13.659 2°55.956 11.6177 0.074734 0.381564 -0.58268
2010-12-06 07:37:31 51°13.659 2°55.956 11.6174 0.07463 0.381015 -0.547855
2010-12-06 07:37:36 51°13.659 2°55.957 11.6176 0.074734 0.381569 -0.547855
2010-12-06 07:37:41 51°13.659 2°55.957 11.6177 0.07463 0.381027 -0.547855
2010-12-06 07:37:46 51°13.659 2°55.957 11.6182 0.07463 0.381032 -0.547855
2010-12-06 07:37:51 51°13.659 2°55.957 11.6185 0.07463 0.381032 -0.547855
2010-12-06 07:37:56 51°13.66 2°55.957 11.619 0.074734 0.381586 -0.58268
2010-12-06 07:38:01 51°13.659 2°55.957 11.6196 0.07463 0.381043 -0.58268
2010-12-06 07:38:06 51°13.659 2°55.957 11.6197 0.07463 0.381043 -0.58268
2010-12-06 07:38:11 51°13.659 2°55.957 11.6194 0.07463 0.381049 -0.58268
2010-12-06 07:38:16 51°13.659 2°55.957 11.619 0.07463 0.381055 -0.58268
2010-12-06 07:38:21 51°13.659 2°55.957 11.6188 0.07463 0.381055 -0.58268
2010-12-06 07:38:26 51°13.66 2°55.958 11.6192 0.07463 0.38106 -0.58268
2010-12-06 07:38:31 51°13.66 2°55.958 11.6188 0.074734 0.381614 -0.547855
2010-12-06 07:38:36 51°13.66 2°55.958 11.6193 0.07463 0.381071 -0.58268
2010-12-06 07:38:41 51°13.66 2°55.958 11.6194 0.07463 0.381077 -0.58268
2010-12-06 07:38:46 51°13.66 2°55.958 11.6196 0.07463 0.381082 -0.58268
2010-12-06 07:38:51 51°13.66 2°55.958 11.6194 0.07463 0.381082 -0.58268
2010-12-06 07:38:56 51°13.66 2°55.958 11.6195 0.07463 0.381082 -0.58268
2010-12-06 07:39:01 51°13.66 2°55.959 11.6194 0.07463 0.381088 -0.58268
2010-12-06 07:39:06 51°13.66 2°55.959 11.6195 0.07463 0.381088 -0.58268
2010-12-06 07:39:11 51°13.66 2°55.959 11.6195 0.07463 0.381099 -0.58268
2010-12-06 07:39:16 51°13.66 2°55.959 11.619 0.07463 0.381099 -0.617504
2010-12-06 07:39:21 51°13.661 2°55.959 11.6189 0.07463 0.381099 -0.617504
2010-12-06 07:39:26 51°13.661 2°55.959 11.6185 0.07463 0.381105 -0.58268
2010-12-06 07:39:31 51°13.661 2°55.959 11.6187 0.07463 0.38111 -0.58268
2010-12-06 07:39:36 51°13.661 2°55.959 11.6183 0.07463 0.381116 -0.58268
2010-12-06 07:39:41 51°13.661 2°55.959 11.6183 0.07463 0.381122 -0.58268
2010-12-06 07:39:46 51°13.661 2°55.959 11.6183 0.07463 0.381122 -0.58268
2010-12-06 07:39:51 51°13.661 2°55.959 11.6179 0.07463 0.381122 -0.58268
2010-12-06 07:39:56 51°13.661 2°55.958 11.6174 0.07463 0.381127 -0.58268
2010-12-06 07:40:01 51°13.661 2°55.959 11.6179 0.07463 0.381133 -0.58268
2010-12-06 07:40:05 51°13.661 2°55.959 11.618 0.07463 0.381133 -0.58268
2010-12-06 07:40:11 51°13.662 2°55.959 11.6181 0.07463 0.381144 -0.58268
2010-12-06 07:40:16 51°13.662 2°55.959 11.6186 0.07463 0.381144 -0.58268
2010-12-06 07:40:21 51°13.662 2°55.959 11.6183 0.07463 0.381144 -0.58268
2010-12-06 07:40:25 51°13.662 2°55.959 11.619 0.07463 0.38115 -0.58268
2010-12-06 07:40:31 51°13.662 2°55.959 11.6192 0.07463 0.38115 -0.58268
2010-12-06 07:40:36 51°13.662 2°55.959 11.6188 0.07463 0.381161 -0.547855
2010-12-06 07:40:41 51°13.662 2°55.959 11.6197 0.07463 0.381161 -0.58268
2010-12-06 07:40:45 51°13.662 2°55.959 11.6196 0.07463 0.381166 -0.58268
2010-12-06 07:40:51 51°13.662 2°55.96 11.6205 0.07463 0.381166 -0.58268
2010-12-06 07:40:56 51°13.662 2°55.959 11.6205 0.07463 0.381166 -0.547855
2010-12-06 07:41:01 51°13.662 2°55.96 11.62 0.07463 0.381172 -0.58268
2010-12-06 07:41:05 51°13.662 2°55.96 11.6198 0.07463 0.381183 -0.58268
2010-12-06 07:41:11 51°13.662 2°55.96 11.6203 0.07463 0.381177 -0.58268
2010-12-06 07:41:16 51°13.662 2°55.96 11.62 0.07463 0.381189 -0.547855
2010-12-06 07:41:21 51°13.662 2°55.96 11.6203 0.07463 0.381189 -0.547855
2010-12-06 07:41:26 51°13.662 2°55.96 11.6202 0.07463 0.381189 -0.547855
2010-12-06 07:41:31 51°13.662 2°55.96 11.62 0.07463 0.381194 -0.58268
2010-12-06 07:41:37 51°13.662 2°55.96 11.6198 0.07463 0.381205 -0.547855
2010-12-06 07:41:41 51°13.662 2°55.96 11.6197 0.07463 0.381205 -0.58268
2010-12-06 07:41:45 51°13.662 2°55.96 11.6192 0.07463 0.381211 -0.58268
2010-12-06 07:41:51 51°13.662 2°55.96 11.619 0.07463 0.381211 -0.58268
2010-12-06 07:41:56 51°13.662 2°55.96 11.6187 0.07463 0.381217 -0.58268
2010-12-06 07:42:01 51°13.662 2°55.96 11.6179 0.07463 0.381228 -0.58268
2010-12-06 07:42:06 51°13.662 2°55.96 11.6177 0.07463 0.381228 -0.58268
2010-12-06 07:42:11 51°13.662 2°55.96 11.6173 0.07463 0.381233 -0.58268
2010-12-06 07:42:16 51°13.662 2°55.96 11.6201 0.07463 0.381233 -0.58268
2010-12-06 07:42:21 51°13.662 2°55.96 11.6191 0.07463 0.381233 -0.58268
2010-12-06 07:42:26 51°13.662 2°55.961 11.6189 0.07463 0.381239 -0.547855
2010-12-06 07:42:31 51°13.662 2°55.961 11.6206 0.07463 0.381239 -0.547855
2010-12-06 07:42:36 51°13.662 2°55.961 11.6203 0.07463 0.381245 -0.58268
2010-12-06 07:42:41 51°13.662 2°55.961 11.6201 0.07463 0.38125 -0.58268
2010-12-06 07:42:45 51°13.662 2°55.961 11.6199 0.07463 0.381261 -0.547855
2010-12-06 07:42:51 51°13.662 2°55.961 11.6193 0.07463 0.381261 -0.547855
2010-12-06 07:42:56 51°13.662 2°55.961 11.6195 0.07463 0.381261 -0.58268
2010-12-06 07:43:01 51°13.662 2°55.961 11.6194 0.07463 0.381267 -0.58268
2010-12-06 07:43:06 51°13.662 2°55.961 11.6194 0.07463 0.381267 -0.547855
2010-12-06 07:43:11 51°13.662 2°55.961 11.6198 0.07463 0.381273 -0.58268
2010-12-06 07:43:16 51°13.661 2°55.96 11.6201 0.07463 0.381273 -0.547855
2010-12-06 07:43:21 51°13.66 2°55.96 11.6204 0.07463 0.381273 -0.547855
2010-12-06 07:43:25 51°13.659 2°55.96 11.6204 0.07463 0.381278 -0.58268
2010-12-06 07:43:31 51°13.659 2°55.96 11.6203 0.07463 0.381289 -0.58268
2010-12-06 07:43:36 51°13.659 2°55.96 11.6202 0.07463 0.381295 -0.58268
2010-12-06 07:43:41 51°13.66 2°55.96 11.6204 0.07463 0.381295 -0.547855
2010-12-06 07:43:46 51°13.66 2°55.96 11.6209 0.07463 0.381301 -0.547855
2010-12-06 07:43:51 51°13.66 2°55.96 11.6208 0.07463 0.381301 -0.547855
2010-12-06 07:43:56 51°13.66 2°55.96 11.6208 0.07463 0.381306 -0.58268
2010-12-06 07:44:01 51°13.66 2°55.96 11.6211 0.07463 0.381306 -0.58268
2010-12-06 07:44:06 51°13.661 2°55.96 11.6216 0.07463 0.381317 -0.58268
2010-12-06 07:44:11 51°13.661 2°55.96 11.6219 0.07463 0.381323 -0.58268
2010-12-06 07:44:16 51°13.66 2°55.96 11.6219 0.07463 0.381323 -0.547855
2010-12-06 07:44:21 51°13.659 2°55.96 11.6158 0.07463 0.381323 -0.547855
2010-12-06 07:44:26 51°13.66 2°55.959 11.6173 0.07463 0.381329 -0.617504
2010-12-06 07:44:31 51°13.66 2°55.958 11.6161 0.07463 0.38134 -0.58268
2010-12-06 07:44:36 51°13.66 2°55.956 11.6128 0.07463 0.38134 -0.58268
2010-12-06 07:44:41 51°13.662 2°55.952 11.6216 0.07463 0.38134 -0.58268
2010-12-06 07:44:45 51°13.663 2°55.949 11.6212 0.07463 0.381351 -0.547855
2010-12-06 07:44:51 51°13.665 2°55.943 11.616 0.07463 0.381351 -0.547855
2010-12-06 07:44:57 51°13.668 2°55.936 11.6197 0.07463 0.381351 -0.58268
2010-12-06 07:45:02 51°13.67 2°55.93 11.6204 0.07463 0.381362 -0.58268
2010-12-06 07:45:09 51°13.673 2°55.92 11.6185 0.07463 0.381373 -0.547855
2010-12-06 07:45:14 51°13.676 2°55.912 11.6192 0.07463 0.381379 -0.58268
2010-12-06 07:45:20 51°13.678 2°55.902 11.6197 0.07463 0.381379 -0.58268
2010-12-06 07:45:25 51°13.68 2°55.894 11.6201 0.07463 0.381379 -0.58268
2010-12-06 07:45:29 51°13.681 2°55.887 11.6201 0.07463 0.381379 -0.58268
2010-12-06 07:45:35 51°13.683 2°55.876 11.621 0.07463 0.381379 -0.58268
2010-12-06 07:45:40 51°13.684 2°55.867 11.6199 0.07463 0.381384 -0.617504
2010-12-06 07:45:45 51°13.686 2°55.857 11.6212 0.07463 0.381384 -0.58268
2010-12-06 07:45:49 51°13.687 2°55.85 11.6215 0.07463 0.381396 -0.547855
2010-12-06 07:45:54 51°13.688 2°55.84 11.6249 0.07463 0.381396 -0.547855
2010-12-06 07:46:00 51°13.689 2°55.829 11.6209 0.07463 0.381407 -0.617504
2010-12-06 07:46:05 51°13.689 2°55.82 11.6221 0.07463 0.381412 -0.58268
2010-12-06 07:46:09 51°13.69 2°55.813 11.621 0.07463 0.381418 -0.617504
2010-12-06 07:46:14 51°13.69 2°55.805 11.6216 0.07463 0.381418 -0.58268
2010-12-06 07:46:19 51°13.69 2°55.797 11.6226 0.07463 0.381418 -0.58268
2010-12-06 07:46:24 51°13.69 2°55.79 11.6224 0.07463 0.381418 -0.58268
2010-12-06 07:46:29 51°13.69 2°55.782 11.6219 0.07463 0.381418 -0.58268
2010-12-06 07:46:33 51°13.69 2°55.777 11.6213 0.07463 0.381418 -0.547855
2010-12-06 07:46:38 51°13.689 2°55.77 11.6216 0.07463 0.381424 -0.58268
2010-12-06 07:46:43 51°13.689 2°55.763 11.622 0.07463 0.381435 -0.58268
2010-12-06 07:46:49 51°13.688 2°55.756 11.6201 0.07463 0.381435 -0.547855
2010-12-06 07:46:53 51°13.687 2°55.752 11.6208 0.07463 0.381435 -0.547855
2010-12-06 07:46:58 51°13.687 2°55.747 11.6223 0.07463 0.381452 -0.547855
2010-12-06 07:47:03 51°13.687 2°55.745 11.6237 0.07463 0.381446 -0.617504
2010-12-06 07:47:08 51°13.687 2°55.742 11.6225 0.07463 0.381452 -0.58268
2010-12-06 07:47:13 51°13.687 2°55.74 11.6222 0.07463 0.381452 -0.58268
2010-12-06 07:47:17 51°13.687 2°55.739 11.6221 0.07463 0.381457 -0.58268
2010-12-06 07:47:22 51°13.687 2°55.738 11.6219 0.07463 0.381457 -0.58268
2010-12-06 07:47:27 51°13.687 2°55.737 11.6216 0.074525 0.380914 -0.58268
2010-12-06 07:47:32 51°13.687 2°55.736 11.6224 0.07463 0.381474 -0.58268
2010-12-06 07:47:37 51°13.688 2°55.735 11.6223 0.074525 0.380931 -0.58268
2010-12-06 07:47:41 51°13.688 2°55.734 11.6232 0.07463 0.381485 -0.58268
2010-12-06 07:47:46 51°13.689 2°55.734 11.6224 0.074525 0.380942 -0.547855
2010-12-06 07:47:51 51°13.689 2°55.733 11.6231 0.074525 0.380942 -0.547855
2010-12-06 07:47:56 51°13.69 2°55.733 11.623 0.07463 0.381485 -0.547855
2010-12-06 07:48:01 51°13.691 2°55.733 11.6241 0.074525 0.380942 -0.58268
2010-12-06 07:48:06 51°13.693 2°55.732 11.6241 0.074525 0.380948 -0.58268
2010-12-06 07:48:11 51°13.694 2°55.732 11.624 0.074525 0.380942 -0.58268
2010-12-06 07:48:16 51°13.696 2°55.731 11.6238 0.074525 0.380953 -0.58268
2010-12-06 07:48:21 51°13.697 2°55.73 11.6233 0.074525 0.380953 -0.58268
2010-12-06 07:48:26 51°13.7 2°55.729 11.6236 0.074525 0.380959 -0.58268
2010-12-06 07:48:31 51°13.703 2°55.728 11.6236 0.074525 0.38097 -0.547855
2010-12-06 07:48:36 51°13.706 2°55.726 11.6223 0.074525 0.380976 -0.58268
2010-12-06 07:48:41 51°13.709 2°55.724 11.6247 0.074525 0.380987 -0.58268
2010-12-06 07:48:46 51°13.713 2°55.721 11.6216 0.074525 0.380993 -0.547855
2010-12-06 07:48:51 51°13.717 2°55.718 11.6258 0.074525 0.380993 -0.547855
2010-12-06 07:48:56 51°13.722 2°55.715 11.6228 0.074525 0.380993 -0.58268
2010-12-06 07:49:01 51°13.728 2°55.711 11.6247 0.074525 0.380987 -0.58268
2010-12-06 07:49:06 51°13.733 2°55.707 11.6215 0.074525 0.380981 -0.58268
2010-12-06 07:49:11 51°13.74 2°55.701 11.6218 0.074525 0.380987 -0.547855
2010-12-06 07:49:16 51°13.746 2°55.695 11.6207 0.074525 0.380987 -0.58268
2010-12-06 07:49:21 51°13.754 2°55.689 11.6216 0.074525 0.380987 -0.58268
2010-12-06 07:49:26 51°13.762 2°55.682 11.6218 0.074525 0.380993 -0.58268
2010-12-06 07:49:31 51°13.771 2°55.674 11.623 0.074525 0.381004 -0.58268
2010-12-06 07:49:36 51°13.78 2°55.667 11.6215 0.074525 0.381009 -0.58268
2010-12-06 07:49:41 51°13.789 2°55.658 11.6222 0.074525 0.381015 -0.58268
2010-12-06 07:49:46 51°13.799 2°55.65 11.6221 0.074525 0.381026 -0.547855
2010-12-06 07:49:51 51°13.81 2°55.642 11.6263 0.074525 0.381026 -0.547855
2010-12-06 07:49:57 51°13.823 2°55.633 11.6269 0.074525 0.381032 -0.58268
2010-12-06 07:50:02 51°13.834 2°55.624 11.6257 0.074525 0.381037 -0.617504
2010-12-06 07:50:07 51°13.846 2°55.616 11.6233 0.074525 0.381048 -0.547855
2010-12-06 07:50:12 51°13.858 2°55.607 11.6229 0.074525 0.381054 -0.58268
2010-12-06 07:50:17 51°13.87 2°55.598 11.6263 0.074525 0.381065 -0.617504
2010-12-06 07:50:21 51°13.88 2°55.592 11.6249 0.074525 0.381065 -0.617504
2010-12-06 07:50:26 51°13.891 2°55.583 11.6223 0.074525 0.381071 -0.547855
2010-12-06 07:50:31 51°13.903 2°55.573 11.6245 0.074525 0.381082 -0.58268
2010-12-06 07:50:37 51°13.918 2°55.563 11.6259 0.074525 0.381082 -0.58268
2010-12-06 07:50:41 51°13.929 2°55.556 11.6241 0.074525 0.381088 -0.58268
2010-12-06 07:50:47 51°13.944 2°55.545 11.6233 0.074525 0.381099 -0.547855
2010-12-06 07:50:52 51°13.957 2°55.535 11.6203 0.074525 0.381099 -0.547855
2010-12-06 07:50:57 51°13.971 2°55.526 11.6252 0.074525 0.381104 -0.58268
2010-12-06 07:51:03 51°13.986 2°55.515 11.6219 0.074525 0.381099 -0.58268
2010-12-06 07:51:09 51°14.002 2°55.503 11.6194 0.074525 0.38111 -0.58268
2010-12-06 07:51:14 51°14.016 2°55.494 11.624 0.074525 0.38111 -0.58268
2010-12-06 07:51:20 51°14.031 2°55.483 11.6218 0.074525 0.381121 -0.547855
2010-12-06 07:51:24 51°14.042 2°55.475 11.6249 0.074525 0.381121 -0.547855
2010-12-06 07:51:29 51°14.055 2°55.465 11.6228 0.074525 0.381127 -0.58268
2010-12-06 07:51:34 51°14.069 2°55.454 11.6182 0.074525 0.381132 -0.58268
2010-12-06 07:51:39 51°14.082 2°55.444 11.6209 0.074525 0.381144 -0.58268
2010-12-06 07:51:44 51°14.096 2°55.433 11.6173 0.074525 0.381138 -0.617504
2010-12-06 07:51:49 51°14.109 2°55.422 11.62 0.074525 0.381144 -0.58268
2010-12-06 07:51:55 51°14.126 2°55.41 11.6211 0.074525 0.381144 -0.58268
2010-12-06 07:52:00 51°14.139 2°55.399 11.5701 0.074525 0.381144 -0.547855
2010-12-06 07:52:05 51°14.152 2°55.389 11.5712 0.074525 0.381149 -0.58268
2010-12-06 07:52:09 51°14.163 2°55.38 11.5793 0.074525 0.381155 -0.58268
2010-12-06 07:52:15 51°14.178 2°55.367 11.5823 0.074525 0.38116 -0.547855
2010-12-06 07:52:20 51°14.191 2°55.356 11.5857 0.074525 0.381172 -0.58268
2010-12-06 07:52:25 51°14.205 2°55.345 11.5949 0.074525 0.381172 -0.58268
2010-12-06 07:52:29 51°14.215 2°55.335 11.5932 0.074525 0.381183 -0.58268
2010-12-06 07:52:34 51°14.228 2°55.323 11.5041 0.074525 0.381188 -0.58268
2010-12-06 07:52:40 51°14.244 2°55.309 11.5262 0.074525 0.381188 -0.58268
2010-12-06 07:52:45 51°14.256 2°55.297 11.4399 0.074525 0.381188 -0.58268
2010-12-06 07:52:49 51°14.266 2°55.287 11.4249 0.074525 0.3812 -0.58268
2010-12-06 07:52:54 51°14.279 2°55.274 11.3989 0.074525 0.3812 -0.58268
2010-12-06 07:53:00 51°14.295 2°55.259 11.3725 0.074525 0.381194 -0.58268
2010-12-06 07:53:05 51°14.308 2°55.248 11.3639 0.074525 0.3812 -0.58268
2010-12-06 07:53:09 51°14.318 2°55.237 11.2822 0.074525 0.381205 -0.58268
2010-12-06 07:53:14 51°14.331 2°55.225 11.3168 0.074525 0.381211 -0.617504
2010-12-06 07:53:19 51°14.344 2°55.212 11.354 0.074525 0.381216 -0.58268
2010-12-06 07:53:24 51°14.357 2°55.199 11.3067 0.074525 0.381216 -0.58268
2010-12-06 07:53:29 51°14.369 2°55.186 11.2424 0.074525 0.381222 -0.58268
2010-12-06 07:53:34 51°14.382 2°55.173 11.2499 0.074525 0.381239 -0.58268
2010-12-06 07:53:39 51°14.395 2°55.16 11.2638 0.074525 0.381245 -0.547855
2010-12-06 07:53:44 51°14.408 2°55.146 11.2731 0.074525 0.381233 -0.58268
2010-12-06 07:53:49 51°14.42 2°55.133 11.2312 0.074525 0.38125 -0.617504
2010-12-06 07:53:54 51°14.433 2°55.119 11.2272 0.074525 0.38125 -0.617504
2010-12-06 07:53:59 51°14.446 2°55.105 11.2262 0.074525 0.381256 -0.547855
2010-12-06 07:54:04 51°14.459 2°55.09 11.1302 0.074525 0.381267 -0.58268
2010-12-06 07:54:09 51°14.472 2°55.076 11.2045 0.074525 0.381273 -0.58268
2010-12-06 07:54:14 51°14.485 2°55.061 11.2203 0.074525 0.381267 -0.547855
2010-12-06 07:54:19 51°14.498 2°55.046 11.1743 0.074525 0.381273 -0.58268
2010-12-06 07:54:24 51°14.511 2°55.031 11.1646 0.074525 0.381273 -0.58268
2010-12-06 07:54:29 51°14.524 2°55.015 11.1821 0.074525 0.381278 -0.547855
2010-12-06 07:54:33 51°14.534 2°55.002 11.1233 0.074525 0.381284 -0.58268
2010-12-06 07:54:39 51°14.549 2°54.981 11.1053 0.074525 0.381295 -0.617504
2010-12-06 07:54:43 51°14.559 2°54.967 11.1226 0.074525 0.381289 -0.58268
2010-12-06 07:54:48 51°14.572 2°54.948 11.1644 0.074525 0.381362 -0.58268
2010-12-06 07:54:53 51°14.584 2°54.929 11.0354 0.074525 0.381362 -0.58268
2010-12-06 07:54:58 51°14.597 2°54.91 11.0726 0.074525 0.381452 -0.58268
2010-12-06 07:55:03 51°14.61 2°54.891 11.0767 0.074525 0.381463 -0.58268
2010-12-06 07:55:08 51°14.624 2°54.874 11.1292 0.074525 0.381435 -0.547855
2010-12-06 07:55:13 51°14.637 2°54.856 11.1413 0.074525 0.381334 -0.547855
2010-12-06 07:55:17 51°14.649 2°54.842 11.1699 0.074525 0.381222 -0.58268
2010-12-06 07:55:22 51°14.663 2°54.825 11.1368 0.074525 0.381222 -0.58268
2010-12-06 07:55:27 51°14.677 2°54.807 11.1137 0.074525 0.381166 -0.58268
2010-12-06 07:55:32 51°14.691 2°54.79 11.0961 0.074525 0.381188 -0.547855
2010-12-06 07:55:37 51°14.706 2°54.772 11.1351 0.074525 0.381256 -0.58268
2010-12-06 07:55:41 51°14.718 2°54.758 11.0834 0.074525 0.381345 -0.58268
2010-12-06 07:55:46 51°14.732 2°54.741 11.0691 0.074525 0.381424 -0.547855
2010-12-06 07:55:51 51°14.747 2°54.724 11.0908 0.074525 0.381424 -0.547855
2010-12-06 07:55:56 51°14.761 2°54.707 11.0602 0.074525 0.381452 -0.58268
2010-12-06 07:56:01 51°14.776 2°54.69 11.0539 0.074525 0.381458 -0.58268
2010-12-06 07:56:06 51°14.791 2°54.673 11.0747 0.074525 0.381424 -0.58268
2010-12-06 07:56:11 51°14.806 2°54.657 11.0861 0.074525 0.381379 -0.58268
2010-12-06 07:56:16 51°14.821 2°54.64 11.0764 0.074525 0.381351 -0.58268
2010-12-06 07:56:21 51°14.836 2°54.623 11.0823 0.074525 0.381351 -0.58268
2010-12-06 07:56:26 51°14.85 2°54.606 11.0962 0.074525 0.381345 -0.58268
2010-12-06 07:56:31 51°14.865 2°54.589 11.0783 0.074525 0.381351 -0.547855
2010-12-06 07:56:36 51°14.88 2°54.573 11.1111 0.074525 0.381379 -0.547855
2010-12-06 07:56:41 51°14.895 2°54.556 11.0934 0.074525 0.381407 -0.58268
2010-12-06 07:56:46 51°14.91 2°54.539 11.0961 0.074525 0.38143 -0.547855
2010-12-06 07:56:51 51°14.925 2°54.523 11.0362 0.074525 0.38143 -0.547855
2010-12-06 07:56:56 51°14.94 2°54.506 11.0394 0.074421 0.380886 -0.617504
2010-12-06 07:57:01 51°14.955 2°54.489 11.0469 0.074525 0.38143 -0.58268
2010-12-06 07:57:06 51°14.97 2°54.473 11.0507 0.074525 0.381424 -0.547855
2010-12-06 07:57:11 51°14.984 2°54.456 11.0727 0.074525 0.381418 -0.58268
2010-12-06 07:57:16 51°14.999 2°54.44 11.0439 0.074525 0.381407 -0.58268
2010-12-06 07:57:21 51°15.013 2°54.423 11.0449 0.074525 0.381407 -0.58268
2010-12-06 07:57:26 51°15.028 2°54.407 11.0698 0.074421 0.380869 -0.58268
2010-12-06 07:57:31 51°15.043 2°54.39 11.0587 0.074525 0.38143 -0.58268
2010-12-06 07:57:36 51°15.058 2°54.374 11.0281 0.074421 0.380886 -0.58268
2010-12-06 07:57:41 51°15.072 2°54.357 11.0365 0.074525 0.381452 -0.58268
2010-12-06 07:57:46 51°15.087 2°54.341 11.0437 0.074421 0.380908 -0.547855
2010-12-06 07:57:51 51°15.103 2°54.324 11.0631 0.074421 0.380908 -0.547855
2010-12-06 07:57:56 51°15.117 2°54.307 11.0117 0.074525 0.381463 -0.58268
2010-12-06 07:58:01 51°15.132 2°54.29 11.0032 0.074525 0.381458 -0.58268
2010-12-06 07:58:06 51°15.147 2°54.273 11.0181 0.074421 0.380914 -0.547855
2010-12-06 07:58:11 51°15.162 2°54.256 11.0236 0.074421 0.380919 -0.58268
2010-12-06 07:58:16 51°15.177 2°54.239 11.0068 0.074525 0.381463 -0.547855
2010-12-06 07:58:21 51°15.192 2°54.222 11.0428 0.074525 0.381463 -0.547855
2010-12-06 07:58:26 51°15.206 2°54.206 11.0574 0.074421 0.380931 -0.547855
2010-12-06 07:58:31 51°15.221 2°54.188 11.0311 0.074421 0.380925 -0.547855
2010-12-06 07:58:36 51°15.235 2°54.169 11.0106 0.074421 0.380953 -0.58268
2010-12-06 07:58:41 51°15.249 2°54.15 11.0056 0.074421 0.380964 -0.58268
2010-12-06 07:58:46 51°15.263 2°54.131 10.989 0.074421 0.380953 -0.547855
2010-12-06 07:58:51 51°15.277 2°54.112 11.0102 0.074421 0.380953 -0.547855
2010-12-06 07:58:56 51°15.291 2°54.093 11.0194 0.074421 0.380953 -0.58268
2010-12-06 07:59:01 51°15.306 2°54.075 11.015 0.074421 0.380953 -0.58268
2010-12-06 07:59:06 51°15.32 2°54.058 11.0121 0.074421 0.380964 -0.547855
2010-12-06 07:59:11 51°15.334 2°54.04 11.0052 0.074421 0.38097 -0.58268
2010-12-06 07:59:16 51°15.349 2°54.023 11.0102 0.074421 0.380975 -0.58268
2010-12-06 07:59:21 51°15.363 2°54.005 11.0309 0.074421 0.380975 -0.58268
2010-12-06 07:59:26 51°15.378 2°53.987 11.0281 0.074421 0.380981 -0.547855
2010-12-06 07:59:31 51°15.392 2°53.968 11.0015 0.074421 0.380992 -0.58268
2010-12-06 07:59:36 51°15.406 2°53.95 10.9981 0.074421 0.381003 -0.547855
2010-12-06 07:59:41 51°15.42 2°53.931 11.0039 0.074421 0.381003 -0.58268
2010-12-06 07:59:46 51°15.434 2°53.913 10.9961 0.074421 0.381009 -0.58268
2010-12-06 07:59:51 51°15.448 2°53.894 10.991 0.074421 0.381009 -0.58268
2010-12-06 07:59:56 51°15.463 2°53.876 11.0005 0.074421 0.381009 -0.58268
2010-12-06 08:00:01 51°15.477 2°53.857 10.99 0.074421 0.381009 -0.58268
2010-12-06 08:00:06 51°15.491 2°53.839 11.0155 0.074421 0.381015 -0.547855
2010-12-06 08:00:11 51°15.505 2°53.82 10.9997 0.074421 0.38102 -0.58268
2010-12-06 08:00:16 51°15.52 2°53.802 11.0032 0.074421 0.381026 -0.547855
2010-12-06 08:00:21 51°15.534 2°53.783 10.9957 0.074421 0.381026 -0.547855
2010-12-06 08:00:26 51°15.548 2°53.765 10.9748 0.074421 0.381037 -0.58268
2010-12-06 08:00:31 51°15.563 2°53.746 10.9886 0.074421 0.381043 -0.58268
2010-12-06 08:00:36 51°15.577 2°53.728 11.0175 0.074421 0.381043 -0.547855
2010-12-06 08:00:41 51°15.591 2°53.71 10.9753 0.074421 0.381054 -0.58268
2010-12-06 08:00:46 51°15.606 2°53.692 11.0153 0.074421 0.38106 -0.547855
2010-12-06 08:00:51 51°15.62 2°53.673 10.9724 0.074421 0.38106 -0.547855
2010-12-06 08:00:56 51°15.635 2°53.655 10.9914 0.074421 0.381065 -0.58268
2010-12-06 08:01:01 51°15.649 2°53.636 10.9829 0.074421 0.381065 -0.617504
2010-12-06 08:01:06 51°15.663 2°53.618 10.9884 0.074421 0.381071 -0.58268
2010-12-06 08:01:11 51°15.678 2°53.6 10.9965 0.074421 0.381082 -0.58268
2010-12-06 08:01:16 51°15.693 2°53.582 11.0035 0.074421 0.381082 -0.547855
2010-12-06 08:01:21 51°15.707 2°53.564 11.0108 0.074421 0.381082 -0.547855
2010-12-06 08:01:26 51°15.722 2°53.546 10.9781 0.074421 0.381088 -0.58268
2010-12-06 08:01:31 51°15.735 2°53.528 10.9667 0.074421 0.381093 -0.58268
2010-12-06 08:01:36 51°15.75 2°53.51 10.9879 0.074421 0.381099 -0.58268
2010-12-06 08:01:41 51°15.765 2°53.492 10.9665 0.074421 0.381116 -0.58268
2010-12-06 08:01:46 51°15.779 2°53.474 10.9793 0.074421 0.381121 -0.547855
2010-12-06 08:01:51 51°15.794 2°53.457 10.9659 0.074421 0.381121 -0.547855
2010-12-06 08:01:56 51°15.809 2°53.44 10.9716 0.074421 0.381116 -0.58268
2010-12-06 08:02:01 51°15.824 2°53.424 10.9677 0.074421 0.381127 -0.58268
2010-12-06 08:02:06 51°15.839 2°53.407 10.9427 0.074421 0.381127 -0.58268
2010-12-06 08:02:11 51°15.855 2°53.392 10.9592 0.074421 0.381127 -0.58268
2010-12-06 08:02:16 51°15.869 2°53.376 10.949 0.074421 0.381138 -0.547855
2010-12-06 08:02:21 51°15.885 2°53.36 10.952 0.074421 0.381138 -0.547855
2010-12-06 08:02:26 51°15.899 2°53.344 10.9797 0.074421 0.381138 -0.58268
2010-12-06 08:02:31 51°15.915 2°53.329 10.9695 0.074421 0.38116 -0.58268
2010-12-06 08:02:36 51°15.929 2°53.313 10.9489 0.074421 0.38116 -0.58268
2010-12-06 08:02:41 51°15.944 2°53.297 10.9668 0.074421 0.38116 -0.58268
2010-12-06 08:02:46 51°15.959 2°53.281 10.9436 0.074421 0.381172 -0.58268
2010-12-06 08:02:51 51°15.974 2°53.265 10.9526 0.074421 0.381172 -0.58268
2010-12-06 08:02:56 51°15.989 2°53.249 10.9754 0.074421 0.381172 -0.58268
2010-12-06 08:03:01 51°16.003 2°53.233 10.9709 0.074421 0.381177 -0.58268
2010-12-06 08:03:06 51°16.019 2°53.217 10.9698 0.074421 0.381177 -0.58268
2010-12-06 08:03:11 51°16.033 2°53.201 10.9393 0.074421 0.381183 -0.547855
2010-12-06 08:03:16 51°16.048 2°53.185 10.9349 0.074421 0.381189 -0.617504
2010-12-06 08:03:21 51°16.064 2°53.169 10.9381 0.074421 0.381189 -0.617504
2010-12-06 08:03:26 51°16.079 2°53.154 10.9286 0.074421 0.381194 -0.58268
2010-12-06 08:03:31 51°16.094 2°53.139 10.9247 0.074421 0.381205 -0.58268
2010-12-06 08:03:36 51°16.109 2°53.123 10.936 0.074421 0.381211 -0.58268
2010-12-06 08:03:41 51°16.125 2°53.109 10.9622 0.074421 0.381217 -0.547855
2010-12-06 08:03:46 51°16.14 2°53.094 10.9727 0.074421 0.381228 -0.58268
2010-12-06 08:03:51 51°16.156 2°53.079 10.9397 0.074421 0.381228 -0.58268
2010-12-06 08:03:56 51°16.171 2°53.064 10.9304 0.074421 0.381228 -0.58268
2010-12-06 08:04:01 51°16.187 2°53.05 10.9482 0.074421 0.381228 -0.58268
2010-12-06 08:04:06 51°16.202 2°53.036 10.9529 0.074421 0.381239 -0.58268
2010-12-06 08:04:11 51°16.218 2°53.022 10.9312 0.074421 0.381245 -0.547855
2010-12-06 08:04:16 51°16.233 2°53.007 10.9084 0.074421 0.381239 -0.547855
2010-12-06 08:04:21 51°16.249 2°52.994 10.9294 0.074421 0.381239 -0.547855
2010-12-06 08:04:26 51°16.266 2°52.981 10.9412 0.074421 0.38125 -0.547855
2010-12-06 08:04:31 51°16.281 2°52.969 10.9206 0.074421 0.38125 -0.58268
2010-12-06 08:04:36 51°16.297 2°52.956 10.9147 0.074421 0.381267 -0.547855
2010-12-06 08:04:41 51°16.313 2°52.944 10.8927 0.074421 0.381267 -0.547855
2010-12-06 08:04:46 51°16.329 2°52.932 10.9114 0.074421 0.381278 -0.547855
2010-12-06 08:04:51 51°16.344 2°52.92 10.9197 0.074421 0.381278 -0.547855
2010-12-06 08:04:56 51°16.361 2°52.907 10.8975 0.074421 0.38129 -0.58268
2010-12-06 08:05:01 51°16.377 2°52.895 10.9307 0.074421 0.38129 -0.547855
2010-12-06 08:05:05 51°16.389 2°52.885 10.9123 0.074421 0.381295 -0.58268
2010-12-06 08:05:11 51°16.408 2°52.87 10.8804 0.074421 0.381301 -0.547855
2010-12-06 08:05:16 51°16.424 2°52.858 10.9048 0.074421 0.381301 -0.58268
2010-12-06 08:05:21 51°16.44 2°52.846 10.9296 0.074421 0.381301 -0.58268
2010-12-06 08:05:26 51°16.456 2°52.834 10.891 0.074421 0.381301 -0.547855
2010-12-06 08:05:31 51°16.472 2°52.822 10.9004 0.074421 0.381318 -0.547855
2010-12-06 08:05:36 51°16.488 2°52.81 10.9318 0.074421 0.381318 -0.58268
2010-12-06 08:05:41 51°16.503 2°52.798 10.914 0.074421 0.381323 -0.58268
2010-12-06 08:05:46 51°16.519 2°52.785 10.9235 0.074421 0.381329 -0.58268
2010-12-06 08:05:51 51°16.535 2°52.773 10.9106 0.074421 0.381329 -0.58268
2010-12-06 08:05:56 51°16.551 2°52.761 10.9142 0.074421 0.381335 -0.58268
2010-12-06 08:06:01 51°16.567 2°52.749 10.9183 0.074421 0.38134 -0.58268
2010-12-06 08:06:06 51°16.583 2°52.738 10.9151 0.074421 0.381346 -0.58268
2010-12-06 08:06:11 51°16.599 2°52.725 10.9348 0.074421 0.381351 -0.58268
2010-12-06 08:06:16 51°16.615 2°52.713 10.8914 0.074421 0.381351 -0.547855
2010-12-06 08:06:21 51°16.631 2°52.702 10.8994 0.074421 0.381351 -0.547855
2010-12-06 08:06:26 51°16.647 2°52.69 10.9228 0.074421 0.381368 -0.58268
2010-12-06 08:06:31 51°16.663 2°52.681 10.9073 0.074421 0.381363 -0.58268
2010-12-06 08:06:36 51°16.679 2°52.669 10.9532 0.074421 0.38138 -0.58268
2010-12-06 08:06:41 51°16.695 2°52.661 10.9161 0.074317 0.380813 -0.58268
2010-12-06 08:06:46 51°16.712 2°52.651 10.9387 0.074317 0.380835 -0.58268
2010-12-06 08:06:51 51°16.728 2°52.643 10.9148 0.074317 0.380835 -0.58268
2010-12-06 08:06:56 51°16.744 2°52.634 10.9507 0.074421 0.381385 -0.58268
2010-12-06 08:07:01 51°16.761 2°52.627 10.9371 0.074317 0.380846 -0.58268
2010-12-06 08:07:06 51°16.777 2°52.619 10.9631 0.074421 0.381413 -0.58268
2010-12-06 08:07:11 51°16.793 2°52.612 10.896 0.074421 0.381413 -0.547855
2010-12-06 08:07:16 51°16.809 2°52.604 10.9256 0.074421 0.381424 -0.58268
2010-12-06 08:07:21 51°16.826 2°52.601 10.9349 0.074421 0.381424 -0.58268
2010-12-06 08:07:26 51°16.842 2°52.596 10.9734 0.074317 0.380869 -0.58268
2010-12-06 08:07:31 51°16.859 2°52.593 10.9858 0.074421 0.381413 -0.58268
2010-12-06 08:07:36 51°16.876 2°52.59 10.9575 0.074421 0.381419 -0.58268
2010-12-06 08:07:41 51°16.892 2°52.589 10.9619 0.074317 0.380874 -0.547855
2010-12-06 08:07:46 51°16.909 2°52.587 10.9661 0.074317 0.380886 -0.58268
2010-12-06 08:07:51 51°16.926 2°52.586 10.9815 0.074317 0.380886 -0.58268
2010-12-06 08:07:56 51°16.943 2°52.586 10.973 0.074317 0.380897 -0.58268
2010-12-06 08:08:01 51°16.959 2°52.586 10.946 0.074317 0.380902 -0.58268
2010-12-06 08:08:06 51°16.976 2°52.586 10.9196 0.074421 0.381453 -0.547855
2010-12-06 08:08:11 51°16.993 2°52.587 10.9399 0.074317 0.380914 -0.58268
2010-12-06 08:08:16 51°17.009 2°52.587 10.9353 0.074317 0.380925 -0.547855
2010-12-06 08:08:21 51°17.026 2°52.588 10.9538 0.074317 0.380925 -0.547855
2010-12-06 08:08:26 51°17.043 2°52.589 10.9461 0.074421 0.381475 -0.58268
2010-12-06 08:08:31 51°17.059 2°52.589 10.9495 0.074317 0.38093 -0.58268
2010-12-06 08:08:36 51°17.076 2°52.589 10.9543 0.074317 0.380936 -0.58268
2010-12-06 08:08:41 51°17.093 2°52.589 10.96 0.074317 0.380947 -0.547855
2010-12-06 08:08:46 51°17.109 2°52.589 10.923 0.074317 0.380947 -0.58268
2010-12-06 08:08:51 51°17.126 2°52.588 10.9435 0.074317 0.380947 -0.58268
2010-12-06 08:08:56 51°17.142 2°52.586 10.8996 0.074317 0.380953 -0.547855
2010-12-06 08:09:01 51°17.159 2°52.583 10.929 0.074317 0.380975 -0.58268
2010-12-06 08:09:06 51°17.175 2°52.58 10.9103 0.074317 0.380987 -0.58268
2010-12-06 08:09:11 51°17.192 2°52.574 10.9435 0.074317 0.380998 -0.58268
2010-12-06 08:09:16 51°17.208 2°52.57 10.8774 0.074317 0.380987 -0.58268
2010-12-06 08:09:21 51°17.225 2°52.563 10.9152 0.074317 0.380987 -0.58268
2010-12-06 08:09:26 51°17.242 2°52.559 10.8983 0.074317 0.381003 -0.58268
2010-12-06 08:09:31 51°17.258 2°52.551 10.9368 0.074317 0.380998 -0.547855
2010-12-06 08:09:36 51°17.274 2°52.547 10.9232 0.074317 0.380992 -0.617504
2010-12-06 08:09:41 51°17.291 2°52.54 10.9175 0.074317 0.381015 -0.58268
2010-12-06 08:09:45 51°17.304 2°52.535 10.938 0.074317 0.381009 -0.547855
2010-12-06 08:09:51 51°17.324 2°52.527 10.9538 0.074317 0.381009 -0.547855
2010-12-06 08:09:56 51°17.34 2°52.521 10.9471 0.074317 0.38102 -0.547855
2010-12-06 08:10:01 51°17.357 2°52.515 10.9446 0.074317 0.38102 -0.547855
2010-12-06 08:10:06 51°17.374 2°52.509 10.955 0.074317 0.381026 -0.58268
2010-12-06 08:10:11 51°17.39 2°52.502 10.9547 0.074317 0.381032 -0.58268
2010-12-06 08:10:16 51°17.406 2°52.496 10.9592 0.074317 0.381043 -0.547855
2010-12-06 08:10:21 51°17.423 2°52.489 10.971 0.074317 0.381043 -0.547855
2010-12-06 08:10:26 51°17.439 2°52.484 10.9724 0.074317 0.381043 -0.547855
2010-12-06 08:10:31 51°17.456 2°52.477 10.9732 0.074317 0.381054 -0.58268
2010-12-06 08:10:36 51°17.472 2°52.472 10.957 0.074317 0.381054 -0.58268
2010-12-06 08:10:41 51°17.489 2°52.465 10.9367 0.074317 0.38106 -0.58268
2010-12-06 08:10:46 51°17.505 2°52.459 10.9733 0.074317 0.381071 -0.547855
2010-12-06 08:10:51 51°17.522 2°52.453 10.9509 0.074317 0.381071 -0.547855
2010-12-06 08:10:56 51°17.538 2°52.447 10.9622 0.074317 0.381076 -0.547855
2010-12-06 08:11:01 51°17.555 2°52.44 10.9777 0.074317 0.381082 -0.547855
2010-12-06 08:11:06 51°17.571 2°52.434 10.9814 0.074317 0.381093 -0.58268
2010-12-06 08:11:11 51°17.587 2°52.428 10.9458 0.074317 0.381093 -0.58268
2010-12-06 08:11:16 51°17.604 2°52.422 10.9396 0.074317 0.381105 -0.58268
2010-12-06 08:11:21 51°17.62 2°52.415 10.9477 0.074317 0.381105 -0.58268
2010-12-06 08:11:26 51°17.637 2°52.409 10.9203 0.074317 0.381105 -0.58268
2010-12-06 08:11:31 51°17.653 2°52.403 10.9368 0.074317 0.381121 -0.58268
2010-12-06 08:11:36 51°17.669 2°52.395 10.9156 0.074317 0.381116 -0.547855
2010-12-06 08:11:41 51°17.685 2°52.389 10.9483 0.074317 0.381116 -0.58268
2010-12-06 08:11:46 51°17.701 2°52.383 10.942 0.074317 0.381133 -0.547855
2010-12-06 08:11:51 51°17.718 2°52.377 10.9514 0.074317 0.381133 -0.547855
2010-12-06 08:11:56 51°17.734 2°52.371 10.9427 0.074317 0.381127 -0.547855
2010-12-06 08:12:01 51°17.75 2°52.364 10.9681 0.074317 0.381144 -0.547855
2010-12-06 08:12:05 51°17.763 2°52.359 10.9763 0.074317 0.381138 -0.58268
2010-12-06 08:12:11 51°17.783 2°52.351 10.9843 0.074317 0.381161 -0.58268
2010-12-06 08:12:16 51°17.799 2°52.345 10.9727 0.074317 0.381166 -0.58268
2010-12-06 08:12:21 51°17.816 2°52.338 10.9767 0.074317 0.381166 -0.58268
2010-12-06 08:12:26 51°17.832 2°52.331 11.003 0.074317 0.381166 -0.58268
2010-12-06 08:12:31 51°17.848 2°52.325 10.9439 0.074317 0.381178 -0.58268
2010-12-06 08:12:36 51°17.865 2°52.318 10.9563 0.074317 0.381172 -0.58268
2010-12-06 08:12:41 51°17.881 2°52.312 10.9413 0.074317 0.381189 -0.58268
2010-12-06 08:12:46 51°17.897 2°52.305 10.9744 0.074317 0.381189 -0.547855
2010-12-06 08:12:51 51°17.914 2°52.299 10.9785 0.074317 0.381189 -0.547855
2010-12-06 08:12:56 51°17.93 2°52.292 10.9892 0.074317 0.381195 -0.547855
2010-12-06 08:13:01 51°17.946 2°52.285 10.9631 0.074317 0.381206 -0.547855
2010-12-06 08:13:06 51°17.962 2°52.278 10.9885 0.074317 0.381211 -0.58268
2010-12-06 08:13:11 51°17.979 2°52.271 10.9803 0.074317 0.381211 -0.547855
2010-12-06 08:13:16 51°17.995 2°52.264 10.9659 0.074317 0.381217 -0.58268
2010-12-06 08:13:21 51°18.012 2°52.257 10.9927 0.074317 0.381217 -0.58268
2010-12-06 08:13:26 51°18.028 2°52.25 10.9747 0.074317 0.381228 -0.58268
2010-12-06 08:13:31 51°18.045 2°52.243 11.006 0.074317 0.381234 -0.58268
2010-12-06 08:13:36 51°18.061 2°52.237 10.9844 0.074317 0.381228 -0.58268
2010-12-06 08:13:41 51°18.078 2°52.23 10.9843 0.074317 0.381245 -0.58268
2010-12-06 08:13:46 51°18.094 2°52.223 10.9726 0.074317 0.381234 -0.547855
2010-12-06 08:13:51 51°18.111 2°52.216 10.9687 0.074317 0.381234 -0.547855
2010-12-06 08:13:56 51°18.127 2°52.21 10.9868 0.074317 0.381256 -0.58268
2010-12-06 08:14:01 51°18.143 2°52.203 10.9814 0.074317 0.381262 -0.547855
2010-12-06 08:14:06 51°18.16 2°52.196 10.9939 0.074317 0.381268 -0.58268
2010-12-06 08:14:11 51°18.177 2°52.19 10.9717 0.074317 0.381268 -0.58268
2010-12-06 08:14:16 51°18.193 2°52.183 10.9874 0.074317 0.381268 -0.58268
2010-12-06 08:14:21 51°18.21 2°52.176 10.9716 0.074317 0.381268 -0.58268
2010-12-06 08:14:26 51°18.226 2°52.169 10.9939 0.074317 0.381285 -0.547855
2010-12-06 08:14:31 51°18.242 2°52.162 10.9659 0.074317 0.38129 -0.58268
2010-12-06 08:14:36 51°18.259 2°52.155 10.9893 0.074317 0.381301 -0.58268
2010-12-06 08:14:41 51°18.275 2°52.148 10.9967 0.074317 0.381296 -0.58268
2010-12-06 08:14:46 51°18.292 2°52.141 10.9873 0.074317 0.381307 -0.547855
2010-12-06 08:14:51 51°18.308 2°52.133 11.0104 0.074317 0.381307 -0.547855
2010-12-06 08:14:56 51°18.324 2°52.126 10.9967 0.074317 0.381307 -0.547855
2010-12-06 08:15:01 51°18.341 2°52.119 11.0014 0.074317 0.381313 -0.58268
2010-12-06 08:15:06 51°18.357 2°52.112 11.012 0.074317 0.381318 -0.58268
2010-12-06 08:15:11 51°18.373 2°52.106 10.998 0.074317 0.38133 -0.58268
2010-12-06 08:15:16 51°18.39 2°52.099 11.0009 0.074317 0.38133 -0.58268
2010-12-06 08:15:21 51°18.406 2°52.092 10.9937 0.074317 0.38133 -0.58268
2010-12-06 08:15:26 51°18.423 2°52.085 11.016 0.074317 0.381335 -0.547855
2010-12-06 08:15:31 51°18.439 2°52.079 10.9997 0.074317 0.381341 -0.58268
2010-12-06 08:15:36 51°18.455 2°52.072 10.9847 0.074317 0.381352 -0.58268
2010-12-06 08:15:41 51°18.472 2°52.064 11.0143 0.074317 0.381352 -0.58268
2010-12-06 08:15:46 51°18.488 2°52.058 11.0125 0.074317 0.381363 -0.58268
2010-12-06 08:15:51 51°18.505 2°52.051 11.0367 0.074317 0.381363 -0.58268
2010-12-06 08:15:56 51°18.521 2°52.044 10.9944 0.074317 0.381358 -0.547855
2010-12-06 08:16:01 51°18.537 2°52.036 11.0179 0.074317 0.381375 -0.58268
2010-12-06 08:16:06 51°18.554 2°52.029 11.0145 0.074317 0.38138 -0.58268
2010-12-06 08:16:11 51°18.57 2°52.022 11.0172 0.074317 0.381397 -0.58268
2010-12-06 08:16:16 51°18.587 2°52.015 11.023 0.074317 0.381386 -0.547855
2010-12-06 08:16:21 51°18.603 2°52.007 11.011 0.074317 0.381386 -0.547855
2010-12-06 08:16:26 51°18.62 2°51.999 11.0097 0.074317 0.381403 -0.58268
2010-12-06 08:16:31 51°18.636 2°51.992 11.0292 0.074317 0.381397 -0.547855
2010-12-06 08:16:36 51°18.653 2°51.985 11.0328 0.074317 0.381403 -0.58268
2010-12-06 08:16:41 51°18.669 2°51.978 11.0399 0.074317 0.381408 -0.58268
2010-12-06 08:16:46 51°18.686 2°51.971 11.0282 0.074213 0.380869 -0.58268
2010-12-06 08:16:51 51°18.702 2°51.963 11.0315 0.074213 0.380869 -0.58268
2010-12-06 08:16:56 51°18.719 2°51.957 11.0334 0.074317 0.38142 -0.58268
2010-12-06 08:17:01 51°18.736 2°51.949 11.0085 0.074317 0.381437 -0.58268
2010-12-06 08:17:06 51°18.752 2°51.942 11.008 0.074317 0.381442 -0.58268
2010-12-06 08:17:11 51°18.769 2°51.934 11.0062 0.074317 0.381442 -0.58268
2010-12-06 08:17:16 51°18.785 2°51.927 11.0086 0.074213 0.380902 -0.617504
2010-12-06 08:17:21 51°18.802 2°51.919 11.0193 0.074213 0.380902 -0.617504
2010-12-06 08:17:26 51°18.818 2°51.911 11.0099 0.074317 0.381448 -0.58268
2010-12-06 08:17:31 51°18.834 2°51.904 11.0134 0.074213 0.380914 -0.58268
2010-12-06 08:17:36 51°18.851 2°51.896 11.029 0.074213 0.380908 -0.58268
2010-12-06 08:17:41 51°18.867 2°51.888 11.0236 0.074317 0.38147 -0.58268
2010-12-06 08:17:46 51°18.884 2°51.88 11.0357 0.074213 0.380925 -0.547855
2010-12-06 08:17:51 51°18.9 2°51.872 11.0311 0.074213 0.380925 -0.547855
2010-12-06 08:17:56 51°18.917 2°51.864 11.0427 0.074213 0.380931 -0.617504
2010-12-06 08:18:01 51°18.933 2°51.857 11.0312 0.074213 0.380931 -0.58268
2010-12-06 08:18:06 51°18.949 2°51.849 11.0576 0.074317 0.381493 -0.58268
2010-12-06 08:18:11 51°18.966 2°51.841 11.0309 0.074213 0.380942 -0.547855
2010-12-06 08:18:16 51°18.982 2°51.834 11.0583 0.074213 0.380953 -0.58268
2010-12-06 08:18:21 51°18.999 2°51.827 11.051 0.074213 0.380953 -0.58268
2010-12-06 08:18:26 51°19.015 2°51.819 11.0689 0.074213 0.380959 -0.58268
2010-12-06 08:18:31 51°19.031 2°51.811 11.0652 0.074213 0.380964 -0.58268
2010-12-06 08:18:36 51°19.048 2°51.803 11.0317 0.074213 0.380976 -0.58268
2010-12-06 08:18:41 51°19.064 2°51.795 11.0553 0.074213 0.380976 -0.547855
2010-12-06 08:18:46 51°19.08 2°51.788 11.0356 0.074213 0.380992 -0.58268
2010-12-06 08:18:51 51°19.096 2°51.78 11.0551 0.074213 0.380992 -0.58268
2010-12-06 08:18:56 51°19.113 2°51.771 11.0604 0.074213 0.380987 -0.547855
2010-12-06 08:19:01 51°19.129 2°51.764 11.039 0.074213 0.380981 -0.58268
2010-12-06 08:19:06 51°19.145 2°51.756 11.0445 0.074213 0.381004 -0.58268
2010-12-06 08:19:11 51°19.161 2°51.748 11.0441 0.074213 0.381004 -0.58268
2010-12-06 08:19:16 51°19.178 2°51.74 11.0621 0.074213 0.381015 -0.58268
2010-12-06 08:19:21 51°19.194 2°51.733 11.0452 0.074213 0.381015 -0.58268
2010-12-06 08:19:26 51°19.21 2°51.725 11.0366 0.074213 0.381015 -0.58268
2010-12-06 08:19:31 51°19.227 2°51.717 11.06 0.074213 0.381015 -0.58268
2010-12-06 08:19:36 51°19.243 2°51.708 11.0621 0.074213 0.381026 -0.58268
2010-12-06 08:19:41 51°19.259 2°51.7 11.0567 0.074213 0.381038 -0.58268
2010-12-06 08:19:46 51°19.276 2°51.691 11.0798 0.074213 0.381032 -0.547855
2010-12-06 08:19:51 51°19.292 2°51.683 11.06 0.074213 0.381032 -0.547855
2010-12-06 08:19:56 51°19.308 2°51.675 11.0535 0.074213 0.381032 -0.58268
2010-12-06 08:20:01 51°19.325 2°51.666 11.0511 0.074213 0.381049 -0.617504
2010-12-06 08:20:06 51°19.341 2°51.657 11.0653 0.074213 0.381043 -0.58268
2010-12-06 08:20:11 51°19.357 2°51.649 11.072 0.074213 0.38106 -0.58268
2010-12-06 08:20:16 51°19.373 2°51.641 11.0638 0.074213 0.38106 -0.547855
2010-12-06 08:20:21 51°19.39 2°51.633 11.0674 0.074213 0.38106 -0.547855
2010-12-06 08:20:26 51°19.406 2°51.624 11.0717 0.074213 0.38106 -0.58268
2010-12-06 08:20:31 51°19.422 2°51.616 11.0534 0.074213 0.38106 -0.58268
2010-12-06 08:20:36 51°19.438 2°51.607 11.0706 0.074213 0.381066 -0.58268
2010-12-06 08:20:41 51°19.455 2°51.599 11.0571 0.074213 0.381077 -0.58268
2010-12-06 08:20:45 51°19.468 2°51.592 11.0589 0.074213 0.381077 -0.58268
2010-12-06 08:20:51 51°19.487 2°51.582 11.0633 0.074213 0.381077 -0.58268
2010-12-06 08:20:56 51°19.504 2°51.573 11.0807 0.074213 0.381066 -0.617504
2010-12-06 08:21:01 51°19.52 2°51.566 11.0726 0.074213 0.381077 -0.547855
2010-12-06 08:21:06 51°19.536 2°51.557 11.0843 0.074213 0.381094 -0.58268
2010-12-06 08:21:11 51°19.553 2°51.549 11.071 0.074213 0.381094 -0.617504
2010-12-06 08:21:16 51°19.569 2°51.54 11.0773 0.074213 0.381111 -0.547855
2010-12-06 08:21:21 51°19.586 2°51.532 11.0627 0.074213 0.381111 -0.547855
2010-12-06 08:21:26 51°19.602 2°51.523 11.068 0.074213 0.381105 -0.58268
2010-12-06 08:21:31 51°19.618 2°51.515 11.059 0.074213 0.381116 -0.547855
2010-12-06 08:21:36 51°19.634 2°51.506 11.0823 0.074213 0.381111 -0.58268
2010-12-06 08:21:41 51°19.651 2°51.498 11.0885 0.074213 0.381122 -0.617504
2010-12-06 08:21:46 51°19.667 2°51.489 11.0883 0.074213 0.381122 -0.58268
2010-12-06 08:21:51 51°19.684 2°51.481 11.0948 0.074213 0.381122 -0.58268
2010-12-06 08:21:56 51°19.7 2°51.473 11.0688 0.074213 0.38115 -0.58268
2010-12-06 08:22:01 51°19.717 2°51.465 11.0855 0.074213 0.38115 -0.58268
2010-12-06 08:22:06 51°19.734 2°51.457 11.085 0.074213 0.381161 -0.58268
2010-12-06 08:22:11 51°19.75 2°51.449 11.0826 0.074213 0.381161 -0.547855
2010-12-06 08:22:16 51°19.766 2°51.44 11.083 0.074213 0.381173 -0.547855
2010-12-06 08:22:21 51°19.783 2°51.432 11.0949 0.074213 0.381173 -0.547855
2010-12-06 08:22:26 51°19.799 2°51.424 11.0596 0.074213 0.381184 -0.58268
2010-12-06 08:22:31 51°19.816 2°51.416 11.0764 0.074213 0.381184 -0.617504
2010-12-06 08:22:36 51°19.832 2°51.408 11.0674 0.074213 0.381184 -0.58268
2010-12-06 08:22:41 51°19.848 2°51.4 11.0852 0.074213 0.38119 -0.58268
2010-12-06 08:22:46 51°19.865 2°51.392 11.0859 0.074213 0.381195 -0.547855
2010-12-06 08:22:51 51°19.881 2°51.384 11.0884 0.074213 0.381195 -0.547855
2010-12-06 08:22:56 51°19.898 2°51.378 11.0865 0.074213 0.381201 -0.58268
2010-12-06 08:23:01 51°19.915 2°51.369 11.0826 0.074213 0.381206 -0.58268
2010-12-06 08:23:06 51°19.931 2°51.362 11.0921 0.074213 0.381212 -0.547855
2010-12-06 08:23:11 51°19.948 2°51.353 11.0952 0.074213 0.381223 -0.58268
2010-12-06 08:23:16 51°19.964 2°51.345 11.0981 0.074213 0.381223 -0.58268
2010-12-06 08:23:21 51°19.981 2°51.336 11.1091 0.074213 0.381223 -0.58268
2010-12-06 08:23:26 51°19.997 2°51.328 11.1115 0.074213 0.381235 -0.547855
2010-12-06 08:23:31 51°20.013 2°51.32 11.1007 0.074213 0.381235 -0.617504
2010-12-06 08:23:36 51°20.03 2°51.312 11.1096 0.074213 0.38124 -0.547855
2010-12-06 08:23:41 51°20.046 2°51.304 11.0804 0.074213 0.381246 -0.58268
2010-12-06 08:23:46 51°20.063 2°51.296 11.0982 0.074213 0.381257 -0.617504
2010-12-06 08:23:51 51°20.08 2°51.289 11.1025 0.074213 0.381257 -0.617504
2010-12-06 08:23:56 51°20.096 2°51.281 11.102 0.074213 0.381252 -0.58268
2010-12-06 08:24:01 51°20.112 2°51.273 11.1145 0.074213 0.381257 -0.58268
2010-12-06 08:24:06 51°20.129 2°51.265 11.1106 0.074213 0.381263 -0.547855
2010-12-06 08:24:11 51°20.146 2°51.257 11.1048 0.074213 0.381274 -0.58268
2010-12-06 08:24:16 51°20.163 2°51.249 11.1125 0.074213 0.38128 -0.58268
2010-12-06 08:24:21 51°20.179 2°51.242 11.1194 0.074213 0.38128 -0.58268
2010-12-06 08:24:26 51°20.196 2°51.233 11.1228 0.074213 0.38128 -0.58268
2010-12-06 08:24:31 51°20.212 2°51.225 11.1169 0.074213 0.381291 -0.547855
2010-12-06 08:24:36 51°20.229 2°51.217 11.066 0.074213 0.381302 -0.58268
2010-12-06 08:24:41 51°20.245 2°51.21 11.0987 0.074213 0.381297 -0.58268
2010-12-06 08:24:46 51°20.262 2°51.202 11.114 0.074213 0.381308 -0.547855
2010-12-06 08:24:51 51°20.279 2°51.194 11.1088 0.074213 0.381308 -0.547855
2010-12-06 08:24:56 51°20.296 2°51.186 11.119 0.074213 0.381314 -0.547855
2010-12-06 08:25:01 51°20.312 2°51.177 11.1191 0.074213 0.381319 -0.58268
2010-12-06 08:25:06 51°20.329 2°51.169 11.1156 0.074213 0.381336 -0.58268
2010-12-06 08:25:11 51°20.346 2°51.161 11.1202 0.074213 0.381331 -0.58268
2010-12-06 08:25:16 51°20.362 2°51.152 11.1185 0.074213 0.381342 -0.58268
2010-12-06 08:25:21 51°20.379 2°51.144 11.1194 0.074213 0.381342 -0.58268
2010-12-06 08:25:25 51°20.392 2°51.137 11.1114 0.074213 0.381347 -0.617504
2010-12-06 08:25:31 51°20.412 2°51.126 11.1255 0.074213 0.381353 -0.58268
2010-12-06 08:25:36 51°20.429 2°51.118 11.1304 0.074213 0.381359 -0.547855
2010-12-06 08:25:41 51°20.446 2°51.109 11.1319 0.074213 0.38137 -0.58268
2010-12-06 08:25:46 51°20.463 2°51.101 11.1174 0.074213 0.381364 -0.58268
2010-12-06 08:25:51 51°20.479 2°51.092 11.1394 0.074213 0.381364 -0.58268
2010-12-06 08:25:56 51°20.496 2°51.083 11.136 0.074213 0.38137 -0.547855
2010-12-06 08:26:01 51°20.513 2°51.074 11.144 0.074213 0.38137 -0.547855
2010-12-06 08:26:06 51°20.529 2°51.065 11.1149 0.074213 0.381393 -0.58268
2010-12-06 08:26:11 51°20.546 2°51.057 11.1294 0.074213 0.381387 -0.58268
2010-12-06 08:26:16 51°20.563 2°51.048 11.1341 0.074213 0.381404 -0.58268
2010-12-06 08:26:21 51°20.58 2°51.039 11.1407 0.074213 0.381404 -0.58268
2010-12-06 08:26:26 51°20.597 2°51.031 11.1256 0.074213 0.381404 -0.617504
2010-12-06 08:26:31 51°20.613 2°51.022 11.1383 0.074213 0.381404 -0.58268
2010-12-06 08:26:36 51°20.63 2°51.014 11.1222 0.074213 0.38141 -0.547855
2010-12-06 08:26:41 51°20.647 2°51.005 11.1395 0.074213 0.381421 -0.58268
2010-12-06 08:26:46 51°20.664 2°50.996 11.1404 0.074213 0.381432 -0.58268
2010-12-06 08:26:51 51°20.68 2°50.987 11.144 0.074213 0.381432 -0.58268
2010-12-06 08:26:56 51°20.697 2°50.978 11.1422 0.074213 0.381432 -0.58268
2010-12-06 08:27:01 51°20.714 2°50.969 11.1238 0.074109 0.380886 -0.547855
2010-12-06 08:27:06 51°20.73 2°50.961 11.144 0.074213 0.381438 -0.617504
2010-12-06 08:27:11 51°20.747 2°50.951 11.1368 0.074109 0.380908 -0.58268
2010-12-06 08:27:16 51°20.764 2°50.942 11.145 0.074213 0.381455 -0.547855
2010-12-06 08:27:21 51°20.781 2°50.934 11.1358 0.074213 0.381455 -0.547855
2010-12-06 08:27:26 51°20.798 2°50.925 11.154 0.074213 0.381466 -0.547855
2010-12-06 08:27:31 51°20.815 2°50.917 11.0977 0.074213 0.38146 -0.547855
2010-12-06 08:27:36 51°20.831 2°50.911 11.1629 0.074109 0.38092 -0.58268
2010-12-06 08:27:41 51°20.848 2°50.907 11.1306 0.074213 0.381472 -0.58268
2010-12-06 08:27:46 51°20.865 2°50.903 11.1756 0.074109 0.380914 -0.58268
2010-12-06 08:27:51 51°20.882 2°50.901 11.138 0.074109 0.380914 -0.58268
2010-12-06 08:27:56 51°20.899 2°50.901 11.1219 0.074109 0.380937 -0.617504
2010-12-06 08:28:01 51°20.916 2°50.901 11.1005 0.074213 0.381494 -0.58268
2010-12-06 08:28:06 51°20.932 2°50.906 11.1991 0.074213 0.381489 -0.58268
2010-12-06 08:28:11 51°20.947 2°50.913 11.196 0.074109 0.380948 -0.58268
2010-12-06 08:28:16 51°20.961 2°50.921 11.1828 0.074213 0.381511 -0.58268
2010-12-06 08:28:21 51°20.976 2°50.931 11.2377 0.074213 0.381511 -0.58268
2010-12-06 08:28:26 51°20.99 2°50.941 11.2196 0.074213 0.381522 -0.58268
2010-12-06 08:28:31 51°21.004 2°50.953 11.1949 0.074109 0.380982 -0.58268
2010-12-06 08:28:36 51°21.019 2°50.964 11.2227 0.074109 0.380982 -0.58268
2010-12-06 08:28:41 51°21.033 2°50.976 11.2009 0.074109 0.380987 -0.58268
2010-12-06 08:28:46 51°21.047 2°50.988 11.2211 0.074109 0.380993 -0.547855
2010-12-06 08:28:51 51°21.061 2°51.001 11.2072 0.074109 0.380993 -0.547855
2010-12-06 08:28:56 51°21.075 2°51.013 11.2151 0.074213 0.381539 -0.58268
2010-12-06 08:29:01 51°21.089 2°51.026 11.1966 0.074109 0.380987 -0.58268
2010-12-06 08:29:06 51°21.102 2°51.038 11.2089 0.074109 0.380999 -0.58268
2010-12-06 08:29:11 51°21.116 2°51.052 11.2144 0.074109 0.38101 -0.547855
2010-12-06 08:29:16 51°21.13 2°51.064 11.1931 0.074109 0.381016 -0.58268
2010-12-06 08:29:21 51°21.144 2°51.077 11.189 0.074109 0.381016 -0.58268
2010-12-06 08:29:26 51°21.158 2°51.09 11.2091 0.074109 0.381027 -0.547855
2010-12-06 08:29:31 51°21.171 2°51.102 11.2235 0.074109 0.381033 -0.58268
2010-12-06 08:29:36 51°21.185 2°51.116 11.1687 0.074109 0.381027 -0.547855
2010-12-06 08:29:41 51°21.199 2°51.128 11.2111 0.074109 0.381049 -0.617504
2010-12-06 08:29:46 51°21.212 2°51.142 11.1943 0.074109 0.381055 -0.58268
2010-12-06 08:29:51 51°21.226 2°51.154 11.217 0.074109 0.381055 -0.58268
2010-12-06 08:29:56 51°21.24 2°51.167 11.1971 0.074109 0.381044 -0.547855
2010-12-06 08:30:01 51°21.254 2°51.18 11.2274 0.074109 0.381061 -0.58268
2010-12-06 08:30:06 51°21.268 2°51.193 11.2206 0.074109 0.381061 -0.58268
2010-12-06 08:30:11 51°21.282 2°51.205 11.2399 0.074109 0.381061 -0.58268
2010-12-06 08:30:16 51°21.296 2°51.218 11.2063 0.074109 0.381066 -0.547855
2010-12-06 08:30:21 51°21.309 2°51.231 11.2257 0.074109 0.381066 -0.547855
2010-12-06 08:30:26 51°21.323 2°51.243 11.2433 0.074109 0.381078 -0.617504
2010-12-06 08:30:31 51°21.337 2°51.256 11.2117 0.074109 0.381083 -0.58268
2010-12-06 08:30:36 51°21.351 2°51.269 11.2307 0.074109 0.381083 -0.58268
2010-12-06 08:30:41 51°21.365 2°51.281 11.2281 0.074109 0.381095 -0.617504
2010-12-06 08:30:46 51°21.379 2°51.295 11.2385 0.074109 0.381089 -0.58268
2010-12-06 08:30:51 51°21.393 2°51.306 11.2406 0.074109 0.381089 -0.58268
2010-12-06 08:30:56 51°21.407 2°51.32 11.2346 0.074109 0.3811 -0.58268
2010-12-06 08:31:01 51°21.421 2°51.331 11.2312 0.074109 0.3811 -0.547855
2010-12-06 08:31:06 51°21.436 2°51.342 11.229 0.074109 0.381117 -0.58268
2010-12-06 08:31:11 51°21.45 2°51.353 11.1817 0.074109 0.381123 -0.58268
2010-12-06 08:31:16 51°21.465 2°51.361 11.2264 0.074109 0.381128 -0.547855
2010-12-06 08:31:21 51°21.48 2°51.372 11.1954 0.074109 0.381128 -0.547855
2010-12-06 08:31:26 51°21.495 2°51.38 11.2563 0.074109 0.381128 -0.58268
2010-12-06 08:31:31 51°21.51 2°51.391 11.2057 0.074109 0.381117 -0.547855
2010-12-06 08:31:36 51°21.527 2°51.395 11.2069 0.074109 0.381157 -0.58268
2010-12-06 08:31:41 51°21.542 2°51.404 11.2047 0.074109 0.381128 -0.547855
2010-12-06 08:31:46 51°21.558 2°51.409 11.2253 0.074109 0.381157 -0.58268
2010-12-06 08:31:51 51°21.574 2°51.416 11.2021 0.074109 0.381157 -0.58268
2010-12-06 08:31:56 51°21.59 2°51.42 11.2211 0.074109 0.381157 -0.617504
2010-12-06 08:32:01 51°21.606 2°51.427 11.2174 0.074109 0.381162 -0.58268
2010-12-06 08:32:06 51°21.623 2°51.43 11.2145 0.074109 0.381174 -0.58268
2010-12-06 08:32:11 51°21.639 2°51.435 11.215 0.074109 0.381168 -0.547855
2010-12-06 08:32:16 51°21.656 2°51.437 11.2343 0.074109 0.381174 -0.58268
2010-12-06 08:32:21 51°21.673 2°51.442 11.2041 0.074109 0.381174 -0.58268
2010-12-06 08:32:26 51°21.69 2°51.441 11.2003 0.074109 0.381162 -0.58268
2010-12-06 08:32:31 51°21.706 2°51.443 11.2418 0.074109 0.381179 -0.547855
2010-12-06 08:32:36 51°21.723 2°51.442 11.2147 0.074109 0.381185 -0.58268
2010-12-06 08:32:41 51°21.741 2°51.44 11.1864 0.074109 0.381213 -0.58268
2010-12-06 08:32:46 51°21.758 2°51.437 11.1913 0.074109 0.381202 -0.58268
2010-12-06 08:32:51 51°21.775 2°51.433 11.1772 0.074109 0.381202 -0.58268
2010-12-06 08:32:56 51°21.792 2°51.429 11.2227 0.074109 0.381202 -0.547855
2010-12-06 08:33:01 51°21.81 2°51.423 11.1668 0.074109 0.381185 -0.547855
2010-12-06 08:33:06 51°21.826 2°51.415 11.2178 0.074109 0.381219 -0.547855
2010-12-06 08:33:11 51°21.844 2°51.41 11.2057 0.074109 0.381196 -0.58268
2010-12-06 08:33:16 51°21.861 2°51.4 11.1848 0.074109 0.381219 -0.58268
2010-12-06 08:33:21 51°21.878 2°51.393 11.2132 0.074109 0.381219 -0.58268
2010-12-06 08:33:26 51°21.896 2°51.385 11.1901 0.074109 0.381213 -0.58268
2010-12-06 08:33:31 51°21.913 2°51.376 11.2092 0.074109 0.381236 -0.547855
2010-12-06 08:33:36 51°21.93 2°51.368 11.1816 0.074109 0.38123 -0.547855
2010-12-06 08:33:41 51°21.947 2°51.359 11.215 0.074109 0.381241 -0.58268
2010-12-06 08:33:46 51°21.965 2°51.35 11.2234 0.074109 0.381247 -0.58268
2010-12-06 08:33:51 51°21.982 2°51.341 11.1847 0.074109 0.381247 -0.58268
2010-12-06 08:33:56 51°21.999 2°51.333 11.1844 0.074109 0.381236 -0.58268
2010-12-06 08:34:01 51°22.017 2°51.324 11.2223 0.074109 0.381241 -0.58268
2010-12-06 08:34:06 51°22.034 2°51.315 11.2081 0.074109 0.381241 -0.547855
2010-12-06 08:34:11 51°22.051 2°51.305 11.2365 0.074109 0.381258 -0.547855
2010-12-06 08:34:16 51°22.068 2°51.297 11.2083 0.074109 0.381258 -0.58268
2010-12-06 08:34:21 51°22.085 2°51.285 11.2113 0.074109 0.381258 -0.58268
2010-12-06 08:34:25 51°22.099 2°51.278 11.1851 0.074109 0.381275 -0.547855
2010-12-06 08:34:31 51°22.119 2°51.264 11.2299 0.074109 0.381275 -0.547855
2010-12-06 08:34:36 51°22.136 2°51.256 11.2114 0.074109 0.381275 -0.617504
2010-12-06 08:34:41 51°22.153 2°51.244 11.2213 0.074109 0.381309 -0.58268
2010-12-06 08:34:46 51°22.17 2°51.234 11.204 0.074109 0.381298 -0.58268
2010-12-06 08:34:50 51°22.183 2°51.225 11.2325 0.074109 0.381298 -0.58268
2010-12-06 08:34:56 51°22.204 2°51.213 11.2101 0.074109 0.381304 -0.547855
2010-12-06 08:35:01 51°22.221 2°51.202 11.2105 0.074109 0.381309 -0.58268
2010-12-06 08:35:06 51°22.238 2°51.192 11.2289 0.074109 0.381304 -0.58268
2010-12-06 08:35:11 51°22.255 2°51.181 11.2135 0.074109 0.381326 -0.58268
2010-12-06 08:35:16 51°22.272 2°51.171 11.2162 0.074109 0.381315 -0.58268
2010-12-06 08:35:21 51°22.289 2°51.161 11.2337 0.074109 0.381315 -0.58268
2010-12-06 08:35:26 51°22.306 2°51.15 11.2341 0.074109 0.381337 -0.58268
2010-12-06 08:35:31 51°22.323 2°51.141 11.2236 0.074109 0.381332 -0.58268
2010-12-06 08:35:36 51°22.34 2°51.13 11.2366 0.074109 0.381349 -0.58268
2010-12-06 08:35:41 51°22.357 2°51.12 11.236 0.074109 0.38136 -0.547855
2010-12-06 08:35:46 51°22.374 2°51.11 11.2429 0.074109 0.38136 -0.58268
2010-12-06 08:35:51 51°22.39 2°51.1 11.2485 0.074109 0.38136 -0.58268
2010-12-06 08:35:56 51°22.407 2°51.09 11.2719 0.074109 0.38136 -0.58268
2010-12-06 08:36:01 51°22.424 2°51.081 11.2283 0.074109 0.381371 -0.547855
2010-12-06 08:36:06 51°22.44 2°51.071 11.2576 0.074109 0.381383 -0.58268
2010-12-06 08:36:11 51°22.457 2°51.063 11.2467 0.074109 0.381388 -0.58268
2010-12-06 08:36:16 51°22.473 2°51.053 11.2516 0.074109 0.381388 -0.547855
2010-12-06 08:36:21 51°22.49 2°51.044 11.2447 0.074109 0.381388 -0.547855
2010-12-06 08:36:26 51°22.506 2°51.034 11.2439 0.074109 0.381405 -0.58268
2010-12-06 08:36:31 51°22.522 2°51.025 11.2523 0.074109 0.3814 -0.58268
2010-12-06 08:36:36 51°22.539 2°51.015 11.2589 0.074109 0.3814 -0.547855
2010-12-06 08:36:41 51°22.555 2°51.006 11.2521 0.074109 0.381417 -0.58268
2010-12-06 08:36:45 51°22.568 2°50.999 11.2718 0.074109 0.381428 -0.58268
2010-12-06 08:36:51 51°22.588 2°50.988 11.2668 0.074109 0.381428 -0.58268
2010-12-06 08:36:56 51°22.604 2°50.978 11.2562 0.074109 0.381417 -0.58268
2010-12-06 08:37:01 51°22.62 2°50.968 11.2795 0.074109 0.381428 -0.58268
2010-12-06 08:37:06 51°22.637 2°50.96 11.2625 0.074109 0.381434 -0.58268
2010-12-06 08:37:11 51°22.653 2°50.949 11.2806 0.074109 0.38145 -0.58268
2010-12-06 08:37:16 51°22.669 2°50.94 11.2632 0.074109 0.381445 -0.617504
2010-12-06 08:37:21 51°22.686 2°50.929 11.2964 0.074109 0.381445 -0.617504
2010-12-06 08:37:26 51°22.703 2°50.919 11.262 0.074109 0.381445 -0.58268
2010-12-06 08:37:31 51°22.719 2°50.908 11.2782 0.074109 0.381479 -0.58268
2010-12-06 08:37:36 51°22.734 2°50.895 11.2911 0.074109 0.381479 -0.58268
2010-12-06 08:37:41 51°22.751 2°50.884 11.2778 0.074109 0.381473 -0.547855
2010-12-06 08:37:46 51°22.766 2°50.869 11.2848 0.074005 0.380949 -0.547855
2010-12-06 08:37:51 51°22.782 2°50.857 11.2718 0.074005 0.380949 -0.547855
2010-12-06 08:37:56 51°22.798 2°50.842 11.2968 0.074109 0.381467 -0.58268
2010-12-06 08:38:01 51°22.814 2°50.83 11.231 0.074109 0.381507 -0.58268
2010-12-06 08:38:06 51°22.829 2°50.814 11.2827 0.074109 0.381518 -0.58268
2010-12-06 08:38:11 51°22.845 2°50.802 11.2591 0.074005 0.380926 -0.58268
2010-12-06 08:38:16 51°22.86 2°50.785 11.2214 0.074005 0.381022 -0.617504
2010-12-06 08:38:21 51°22.876 2°50.77 11.3687 0.074005 0.381022 -0.617504
2010-12-06 08:38:26 51°22.891 2°50.759 11.2786 0.074005 0.380971 -0.58268
2010-12-06 08:38:31 51°22.905 2°50.742 11.3095 0.074005 0.381039 -0.58268
2010-12-06 08:38:36 51°22.921 2°50.731 11.297 0.074109 0.381552 -0.58268
2010-12-06 08:38:41 51°22.936 2°50.716 11.2745 0.074005 0.381028 -0.58268
2010-12-06 08:38:46 51°22.951 2°50.703 11.3325 0.074005 0.380983 -0.58268
2010-12-06 08:38:51 51°22.967 2°50.69 11.2653 0.074005 0.380983 -0.58268
2010-12-06 08:38:56 51°22.982 2°50.675 11.3368 0.074005 0.380988 -0.58268
2010-12-06 08:39:01 51°22.998 2°50.664 11.2855 0.074005 0.380954 -0.58268
2010-12-06 08:39:06 51°23.013 2°50.649 11.3062 0.074005 0.380971 -0.617504
2010-12-06 08:39:11 51°23.028 2°50.639 11.3148 0.074005 0.380954 -0.547855
2010-12-06 08:39:16 51°23.044 2°50.625 11.3004 0.074005 0.380977 -0.547855
2010-12-06 08:39:21 51°23.059 2°50.613 11.3096 0.074005 0.380977 -0.547855
2010-12-06 08:39:26 51°23.075 2°50.601 11.3012 0.074005 0.380954 -0.58268
2010-12-06 08:39:30 51°23.088 2°50.592 11.307 0.074005 0.380977 -0.58268
2010-12-06 08:39:36 51°23.106 2°50.577 11.3088 0.074005 0.380977 -0.58268
2010-12-06 08:39:41 51°23.122 2°50.566 11.2962 0.074005 0.380977 -0.58268
2010-12-06 08:39:46 51°23.137 2°50.553 11.3164 0.074005 0.380988 -0.58268
2010-12-06 08:39:51 51°23.153 2°50.541 11.2959 0.074005 0.380988 -0.58268
2010-12-06 08:39:56 51°23.168 2°50.527 11.3087 0.074005 0.380988 -0.547855
2010-12-06 08:40:01 51°23.184 2°50.515 11.3025 0.074005 0.380988 -0.58268
2010-12-06 08:40:06 51°23.199 2°50.502 11.2991 0.074005 0.380988 -0.617504
2010-12-06 08:40:11 51°23.215 2°50.489 11.3048 0.074005 0.380994 -0.58268
2010-12-06 08:40:16 51°23.23 2°50.477 11.3124 0.074005 0.381 -0.617504
2010-12-06 08:40:21 51°23.246 2°50.464 11.3076 0.074005 0.381 -0.617504
2010-12-06 08:40:26 51°23.261 2°50.45 11.3141 0.074005 0.380994 -0.547855
2010-12-06 08:40:31 51°23.277 2°50.437 11.2993 0.074005 0.381005 -0.617504
2010-12-06 08:40:36 51°23.292 2°50.424 11.3152 0.074005 0.381017 -0.547855
2010-12-06 08:40:41 51°23.308 2°50.411 11.3197 0.074005 0.381022 -0.58268
2010-12-06 08:40:46 51°23.323 2°50.398 11.3068 0.074005 0.381022 -0.58268
2010-12-06 08:40:51 51°23.338 2°50.385 11.3216 0.074005 0.381022 -0.58268
2010-12-06 08:40:56 51°23.354 2°50.372 11.3286 0.074005 0.381033 -0.617504
2010-12-06 08:41:01 51°23.369 2°50.359 11.3253 0.074005 0.381039 -0.58268
2010-12-06 08:41:06 51°23.384 2°50.345 11.3233 0.074005 0.38105 -0.617504
2010-12-06 08:41:11 51°23.4 2°50.333 11.3207 0.074005 0.381045 -0.617504
2010-12-06 08:41:16 51°23.416 2°50.318 11.3283 0.074005 0.381067 -0.58268
2010-12-06 08:41:21 51°23.431 2°50.306 11.3435 0.074005 0.381067 -0.58268
2010-12-06 08:41:26 51°23.447 2°50.292 11.3351 0.074005 0.381056 -0.547855
2010-12-06 08:41:31 51°23.462 2°50.278 11.347 0.074005 0.381079 -0.58268
2010-12-06 08:41:36 51°23.478 2°50.266 11.3453 0.074005 0.381073 -0.547855
2010-12-06 08:41:41 51°23.493 2°50.252 11.3359 0.074005 0.381096 -0.58268
2010-12-06 08:41:46 51°23.509 2°50.239 11.3542 0.074005 0.38109 -0.58268
2010-12-06 08:41:51 51°23.524 2°50.226 11.3492 0.074005 0.38109 -0.58268
2010-12-06 08:41:56 51°23.54 2°50.213 11.3458 0.074005 0.381101 -0.58268
2010-12-06 08:42:01 51°23.556 2°50.2 11.3251 0.074005 0.381107 -0.58268
2010-12-06 08:42:06 51°23.571 2°50.186 11.3598 0.074005 0.381118 -0.58268
2010-12-06 08:42:11 51°23.587 2°50.173 11.3391 0.074005 0.381118 -0.58268
2010-12-06 08:42:16 51°23.602 2°50.159 11.359 0.074005 0.38113 -0.58268
2010-12-06 08:42:21 51°23.617 2°50.145 11.3461 0.074005 0.38113 -0.58268
2010-12-06 08:42:26 51°23.633 2°50.132 11.3707 0.074005 0.38113 -0.547855
2010-12-06 08:42:31 51°23.648 2°50.118 11.3523 0.074005 0.381135 -0.617504
2010-12-06 08:42:36 51°23.664 2°50.104 11.3526 0.074005 0.381147 -0.58268
2010-12-06 08:42:41 51°23.68 2°50.09 11.3596 0.074005 0.381152 -0.58268
2010-12-06 08:42:46 51°23.695 2°50.077 11.3698 0.074005 0.381152 -0.58268
2010-12-06 08:42:51 51°23.71 2°50.062 11.3438 0.074005 0.381152 -0.58268
2010-12-06 08:42:56 51°23.725 2°50.047 11.358 0.074005 0.381169 -0.58268
2010-12-06 08:43:01 51°23.741 2°50.032 11.3462 0.074005 0.381186 -0.58268
2010-12-06 08:43:06 51°23.756 2°50.016 11.3601 0.074005 0.381186 -0.58268
2010-12-06 08:43:11 51°23.771 2°50.001 11.3558 0.074005 0.381186 -0.58268
2010-12-06 08:43:16 51°23.786 2°49.984 11.3723 0.074005 0.381186 -0.58268
2010-12-06 08:43:21 51°23.801 2°49.968 11.3567 0.074005 0.381186 -0.58268
2010-12-06 08:43:26 51°23.816 2°49.952 11.3732 0.074005 0.381192 -0.547855
2010-12-06 08:43:31 51°23.83 2°49.935 11.3773 0.074005 0.381203 -0.58268
2010-12-06 08:43:36 51°23.845 2°49.919 11.3829 0.074005 0.381203 -0.58268
2010-12-06 08:43:41 51°23.86 2°49.903 11.3563 0.074005 0.381209 -0.547855
2010-12-06 08:43:46 51°23.875 2°49.886 11.3768 0.074005 0.38122 -0.58268
2010-12-06 08:43:51 51°23.89 2°49.869 11.3748 0.074005 0.38122 -0.58268
2010-12-06 08:43:56 51°23.904 2°49.853 11.3809 0.074005 0.381214 -0.58268
2010-12-06 08:44:01 51°23.919 2°49.836 11.3848 0.074005 0.381231 -0.58268
2010-12-06 08:44:06 51°23.934 2°49.82 11.3829 0.074005 0.381231 -0.58268
2010-12-06 08:44:11 51°23.949 2°49.804 11.3663 0.074005 0.381231 -0.58268
2010-12-06 08:44:16 51°23.963 2°49.787 11.3788 0.074005 0.381243 -0.58268
2010-12-06 08:44:21 51°23.978 2°49.771 11.3692 0.074005 0.381243 -0.58268
2010-12-06 08:44:26 51°23.993 2°49.754 11.383 0.074005 0.381248 -0.547855
2010-12-06 08:44:31 51°24.008 2°49.738 11.3849 0.074005 0.381254 -0.58268
2010-12-06 08:44:36 51°24.023 2°49.721 11.383 0.074005 0.38126 -0.58268
2010-12-06 08:44:41 51°24.037 2°49.705 11.3801 0.074005 0.38126 -0.58268
2010-12-06 08:44:46 51°24.052 2°49.688 11.3891 0.074005 0.381277 -0.617504
2010-12-06 08:44:51 51°24.067 2°49.672 11.3989 0.074005 0.381277 -0.617504
2010-12-06 08:44:56 51°24.082 2°49.655 11.4015 0.074005 0.381282 -0.58268
2010-12-06 08:45:01 51°24.097 2°49.639 11.388 0.074005 0.381288 -0.58268
2010-12-06 08:45:06 51°24.111 2°49.622 11.3963 0.074005 0.381299 -0.58268
2010-12-06 08:45:11 51°24.126 2°49.606 11.3995 0.074005 0.381299 -0.547855
2010-12-06 08:45:16 51°24.141 2°49.589 11.4009 0.074005 0.381305 -0.58268
2010-12-06 08:45:21 51°24.156 2°49.572 11.3936 0.074005 0.381305 -0.58268
2010-12-06 08:45:26 51°24.171 2°49.556 11.4065 0.074005 0.381316 -0.547855
2010-12-06 08:45:31 51°24.186 2°49.539 11.3984 0.074005 0.381316 -0.547855
2010-12-06 08:45:36 51°24.201 2°49.523 11.4035 0.074005 0.381328 -0.547855
2010-12-06 08:45:41 51°24.216 2°49.507 11.4008 0.074005 0.381322 -0.58268
2010-12-06 08:45:46 51°24.231 2°49.49 11.4118 0.073901 0.380786 -0.58268
2010-12-06 08:45:51 51°24.246 2°49.473 11.4015 0.073901 0.380786 -0.58268
2010-12-06 08:45:56 51°24.261 2°49.457 11.4178 0.074005 0.381345 -0.58268
2010-12-06 08:46:01 51°24.276 2°49.44 11.3884 0.073901 0.380803 -0.547855
2010-12-06 08:46:06 51°24.291 2°49.424 11.4239 0.073901 0.380808 -0.58268
2010-12-06 08:46:11 51°24.306 2°49.407 11.4141 0.073901 0.38082 -0.58268
2010-12-06 08:46:16 51°24.321 2°49.391 11.4074 0.074005 0.381373 -0.58268
2010-12-06 08:46:21 51°24.336 2°49.374 11.4026 0.074005 0.381373 -0.58268
2010-12-06 08:46:26 51°24.351 2°49.358 11.4073 0.073901 0.38082 -0.58268
2010-12-06 08:46:31 51°24.366 2°49.341 11.4031 0.073901 0.380825 -0.58268
2010-12-06 08:46:36 51°24.381 2°49.324 11.4051 0.073901 0.380842 -0.58268
2010-12-06 08:46:41 51°24.396 2°49.308 11.4118 0.073901 0.380848 -0.58268
2010-12-06 08:46:46 51°24.411 2°49.291 11.4048 0.073901 0.380848 -0.58268
2010-12-06 08:46:51 51°24.426 2°49.274 11.4176 0.073901 0.380848 -0.58268
2010-12-06 08:46:56 51°24.441 2°49.258 11.4103 0.073901 0.380848 -0.58268
2010-12-06 08:47:01 51°24.456 2°49.241 11.4077 0.073901 0.380859 -0.58268
2010-12-06 08:47:06 51°24.471 2°49.225 11.4073 0.073901 0.380871 -0.58268
2010-12-06 08:47:11 51°24.486 2°49.209 11.4261 0.073901 0.380865 -0.547855
2010-12-06 08:47:16 51°24.501 2°49.192 11.4166 0.073901 0.380876 -0.58268
2010-12-06 08:47:21 51°24.516 2°49.175 11.4309 0.073901 0.380876 -0.58268
2010-12-06 08:47:26 51°24.53 2°49.159 11.4342 0.073901 0.380893 -0.58268
2010-12-06 08:47:31 51°24.545 2°49.142 11.4555 0.073901 0.380893 -0.547855
2010-12-06 08:47:36 51°24.56 2°49.125 11.4968 0.073901 0.380888 -0.58268
2010-12-06 08:47:41 51°24.573 2°49.106 11.4049 0.073901 0.380905 -0.58268
2010-12-06 08:47:45 51°24.584 2°49.089 11.4507 0.073901 0.380916 -0.58268
2010-12-06 08:47:51 51°24.6 2°49.065 11.4179 0.073901 0.380916 -0.58268
2010-12-06 08:47:56 51°24.613 2°49.042 11.4342 0.073901 0.380933 -0.58268
2010-12-06 08:48:01 51°24.626 2°49.021 11.4161 0.073901 0.380927 -0.58268
2010-12-06 08:48:06 51°24.638 2°48.997 11.4216 0.073901 0.380933 -0.58268
2010-12-06 08:48:11 51°24.651 2°48.975 11.4268 0.073901 0.380927 -0.58268
2010-12-06 08:48:16 51°24.662 2°48.951 11.4214 0.073901 0.380938 -0.58268
2010-12-06 08:48:21 51°24.674 2°48.927 11.4296 0.073901 0.380938 -0.58268
2010-12-06 08:48:26 51°24.686 2°48.903 11.4298 0.073901 0.380933 -0.617504
2010-12-06 08:48:31 51°24.698 2°48.879 11.4398 0.073901 0.380938 -0.58268
2010-12-06 08:48:36 51°24.709 2°48.855 11.4284 0.073901 0.380938 -0.617504
2010-12-06 08:48:41 51°24.721 2°48.831 11.4586 0.073901 0.38095 -0.58268
2010-12-06 08:48:45 51°24.731 2°48.812 11.4433 0.073901 0.38095 -0.617504
2010-12-06 08:48:51 51°24.745 2°48.783 11.4459 0.073901 0.38095 -0.617504
2010-12-06 08:48:56 51°24.757 2°48.759 11.4533 0.073901 0.380955 -0.58268
2010-12-06 08:49:01 51°24.769 2°48.735 11.471 0.073901 0.380967 -0.58268
2010-12-06 08:49:06 51°24.781 2°48.711 11.4568 0.073901 0.380967 -0.58268
2010-12-06 08:49:11 51°24.793 2°48.688 11.4511 0.073901 0.380972 -0.617504
2010-12-06 08:49:16 51°24.805 2°48.664 11.4559 0.073901 0.380972 -0.617504
2010-12-06 08:49:21 51°24.816 2°48.639 11.4404 0.073901 0.380972 -0.617504
2010-12-06 08:49:26 51°24.829 2°48.616 11.4357 0.073901 0.380984 -0.617504
2010-12-06 08:49:31 51°24.841 2°48.592 11.4612 0.073901 0.380984 -0.58268
2010-12-06 08:49:36 51°24.853 2°48.568 11.4578 0.073901 0.381006 -0.58268
2010-12-06 08:49:41 51°24.864 2°48.545 11.4795 0.073901 0.381006 -0.58268
2010-12-06 08:49:46 51°24.875 2°48.524 11.4819 0.073901 0.381012 -0.58268
2010-12-06 08:49:51 51°24.884 2°48.504 11.4925 0.073901 0.381012 -0.58268
2010-12-06 08:49:56 51°24.893 2°48.486 11.4913 0.073901 0.381023 -0.58268
2010-12-06 08:50:01 51°24.902 2°48.469 11.4909 0.073901 0.381046 -0.58268
2010-12-06 08:50:05 51°24.908 2°48.456 11.4914 0.073901 0.381046 -0.58268
2010-12-06 08:50:11 51°24.917 2°48.438 11.5107 0.073901 0.381052 -0.58268
2010-12-06 08:50:16 51°24.925 2°48.426 11.5332 0.073901 0.38104 -0.58268
2010-12-06 08:50:21 51°24.932 2°48.414 11.5172 0.073901 0.38104 -0.58268
2010-12-06 08:50:26 51°24.938 2°48.404 11.5378 0.073901 0.381052 -0.58268
2010-12-06 08:50:30 51°24.943 2°48.396 11.5603 0.073901 0.381052 -0.58268
2010-12-06 08:50:36 51°24.95 2°48.386 11.5655 0.073901 0.381069 -0.58268
2010-12-06 08:50:41 51°24.955 2°48.378 11.5784 0.073901 0.381074 -0.58268
2010-12-06 08:50:45 51°24.959 2°48.372 11.5868 0.073901 0.381091 -0.617504
2010-12-06 08:50:51 51°24.965 2°48.365 11.6051 0.073901 0.381091 -0.617504
2010-12-06 08:50:56 51°24.968 2°48.36 11.6012 0.073901 0.381091 -0.58268
2010-12-06 08:51:01 51°24.972 2°48.355 11.6124 0.073901 0.381097 -0.617504
2010-12-06 08:51:06 51°24.975 2°48.351 11.6242 0.073901 0.381108 -0.58268
2010-12-06 08:51:11 51°24.978 2°48.347 11.627 0.073901 0.381114 -0.58268
2010-12-06 08:51:16 51°24.98 2°48.344 11.6344 0.073901 0.38112 -0.58268
2010-12-06 08:51:21 51°24.981 2°48.341 11.6489 0.073901 0.38112 -0.58268
2010-12-06 08:51:25 51°24.982 2°48.338 11.6564 0.073901 0.381125 -0.58268
2010-12-06 08:51:31 51°24.984 2°48.335 11.6645 0.073901 0.381137 -0.547855
2010-12-06 08:51:36 51°24.984 2°48.332 11.6588 0.073901 0.381142 -0.58268
2010-12-06 08:51:41 51°24.984 2°48.329 11.6617 0.073901 0.381159 -0.58268
2010-12-06 08:51:46 51°24.984 2°48.326 11.6696 0.073901 0.381159 -0.617504
2010-12-06 08:51:51 51°24.984 2°48.323 11.6714 0.073901 0.381159 -0.617504
2010-12-06 08:51:56 51°24.983 2°48.319 11.6685 0.073901 0.381171 -0.617504
2010-12-06 08:52:01 51°24.982 2°48.316 11.6694 0.073901 0.381176 -0.58268
2010-12-06 08:52:05 51°24.982 2°48.314 11.6756 0.073901 0.381176 -0.58268
2010-12-06 08:52:11 51°24.981 2°48.31 11.6805 0.073901 0.381188 -0.617504
2010-12-06 08:52:16 51°24.98 2°48.307 11.682 0.073901 0.381193 -0.617504
2010-12-06 08:52:21 51°24.979 2°48.304 11.6949 0.073901 0.381193 -0.617504
2010-12-06 08:52:25 51°24.978 2°48.301 11.6899 0.073901 0.381188 -0.58268
2010-12-06 08:52:31 51°24.977 2°48.297 11.6908 0.073901 0.381193 -0.58268
2010-12-06 08:52:36 51°24.976 2°48.294 11.6974 0.073901 0.381199 -0.617504
2010-12-06 08:52:41 51°24.975 2°48.291 11.7 0.073901 0.38121 -0.58268
2010-12-06 08:52:45 51°24.974 2°48.288 11.7063 0.073901 0.381216 -0.58268
2010-12-06 08:52:51 51°24.972 2°48.285 11.7094 0.073901 0.381216 -0.58268
2010-12-06 08:52:56 51°24.971 2°48.282 11.7128 0.073901 0.381227 -0.58268
2010-12-06 08:53:01 51°24.97 2°48.278 11.7112 0.073901 0.381227 -0.617504
2010-12-06 08:53:06 51°24.968 2°48.275 11.7231 0.073797 0.380679 -0.58268
2010-12-06 08:53:11 51°24.967 2°48.272 11.7254 0.073901 0.381227 -0.617504
2010-12-06 08:53:16 51°24.966 2°48.269 11.7339 0.073797 0.380679 -0.58268
2010-12-06 08:53:21 51°24.964 2°48.266 11.7321 0.073797 0.380679 -0.58268
2010-12-06 08:53:26 51°24.963 2°48.263 11.7414 0.073797 0.380685 -0.58268
2010-12-06 08:53:31 51°24.961 2°48.259 11.7425 0.073797 0.38069 -0.58268
2010-12-06 08:53:36 51°24.96 2°48.256 11.3291 0.073901 0.38125 -0.58268
2010-12-06 08:53:41 51°24.959 2°48.253 11.3117 0.073797 0.380696 -0.58268
2010-12-06 08:53:46 51°24.957 2°48.249 11.3357 0.073797 0.380713 -0.617504
2010-12-06 08:53:51 51°24.956 2°48.246 11.3626 0.073797 0.380713 -0.617504
2010-12-06 08:53:56 51°24.954 2°48.243 11.3629 0.073797 0.380719 -0.58268
2010-12-06 08:54:01 51°24.953 2°48.239 11.4046 0.073797 0.380724 -0.617504
2010-12-06 08:54:05 51°24.952 2°48.237 11.3999 0.073797 0.380724 -0.547855
2010-12-06 08:54:11 51°24.951 2°48.233 11.44 0.073797 0.380719 -0.617504
2010-12-06 08:54:16 51°24.949 2°48.229 11.5599 0.073797 0.380736 -0.58268
2010-12-06 08:54:21 51°24.947 2°48.226 11.5868 0.073797 0.380736 -0.58268
2010-12-06 08:54:26 51°24.946 2°48.222 11.5853 0.073797 0.38073 -0.617504
2010-12-06 08:54:31 51°24.945 2°48.219 11.5863 0.073797 0.380747 -0.58268
2010-12-06 08:54:36 51°24.943 2°48.215 11.5909 0.073797 0.380747 -0.58268
2010-12-06 08:54:41 51°24.941 2°48.212 11.5813 0.073797 0.380753 -0.58268
2010-12-06 08:54:45 51°24.94 2°48.209 11.5993 0.073797 0.380758 -0.58268
2010-12-06 08:54:51 51°24.938 2°48.205 11.5977 0.073797 0.380758 -0.58268
2010-12-06 08:54:56 51°24.936 2°48.201 11.6016 0.073797 0.380764 -0.58268
2010-12-06 08:55:01 51°24.935 2°48.198 11.601 0.073797 0.380758 -0.58268
2010-12-06 08:55:06 51°24.933 2°48.195 11.5974 0.073797 0.38077 -0.58268
2010-12-06 08:55:10 51°24.932 2°48.192 11.5987 0.073797 0.38077 -0.617504
2010-12-06 08:55:16 51°24.931 2°48.187 11.603 0.073797 0.380781 -0.58268
2010-12-06 08:55:21 51°24.929 2°48.184 11.6158 0.073797 0.380781 -0.58268
2010-12-06 08:55:25 51°24.927 2°48.181 11.6147 0.073797 0.380787 -0.58268
2010-12-06 08:55:31 51°24.926 2°48.177 11.6104 0.073797 0.380787 -0.58268
2010-12-06 08:55:36 51°24.924 2°48.173 11.6071 0.073797 0.380798 -0.547855
2010-12-06 08:55:41 51°24.923 2°48.17 11.61 0.073797 0.380798 -0.58268
2010-12-06 08:55:46 51°24.921 2°48.166 11.6034 0.073797 0.380815 -0.58268
2010-12-06 08:55:51 51°24.92 2°48.163 11.6223 0.073797 0.380815 -0.58268
2010-12-06 08:55:56 51°24.918 2°48.159 11.6175 0.073797 0.380809 -0.58268
2010-12-06 08:56:01 51°24.917 2°48.155 11.6287 0.073797 0.380821 -0.547855
2010-12-06 08:56:05 51°24.915 2°48.153 11.6239 0.073797 0.380821 -0.58268
2010-12-06 08:56:11 51°24.913 2°48.149 11.6122 0.073797 0.380826 -0.58268
2010-12-06 08:56:16 51°24.912 2°48.145 11.6286 0.073797 0.380838 -0.58268
2010-12-06 08:56:21 51°24.91 2°48.141 11.6368 0.073797 0.380838 -0.58268
2010-12-06 08:56:26 51°24.908 2°48.138 11.632 0.073797 0.380838 -0.547855
2010-12-06 08:56:31 51°24.906 2°48.134 11.6465 0.073797 0.380843 -0.547855
2010-12-06 08:56:36 51°24.905 2°48.131 11.6436 0.073797 0.380849 -0.58268
2010-12-06 08:56:41 51°24.903 2°48.127 11.6562 0.073797 0.380855 -0.58268
2010-12-06 08:56:45 51°24.902 2°48.124 11.6531 0.073797 0.38086 -0.58268
2010-12-06 08:56:51 51°24.9 2°48.12 11.661 0.073797 0.38086 -0.58268
2010-12-06 08:56:56 51°24.898 2°48.116 11.647 0.073797 0.38086 -0.58268
2010-12-06 08:57:01 51°24.897 2°48.113 11.6649 0.073797 0.380872 -0.58268
2010-12-06 08:57:06 51°24.895 2°48.109 11.6544 0.073797 0.380872 -0.617504
2010-12-06 08:57:11 51°24.893 2°48.105 11.6753 0.073797 0.380883 -0.547855
2010-12-06 08:57:16 51°24.891 2°48.102 11.6264 0.073797 0.380889 -0.58268
2010-12-06 08:57:21 51°24.89 2°48.098 11.6713 0.073797 0.380889 -0.58268
2010-12-06 08:57:25 51°24.888 2°48.095 11.6679 0.073797 0.380889 -0.58268
2010-12-06 08:57:31 51°24.886 2°48.091 11.6806 0.073797 0.3809 -0.617504
2010-12-06 08:57:36 51°24.885 2°48.087 11.6783 0.073797 0.380906 -0.58268
2010-12-06 08:57:41 51°24.883 2°48.083 11.6962 0.073797 0.380917 -0.58268
2010-12-06 08:57:46 51°24.881 2°48.08 11.6938 0.073797 0.380923 -0.58268
2010-12-06 08:57:51 51°24.88 2°48.076 11.7001 0.073797 0.380923 -0.58268
2010-12-06 08:57:56 51°24.878 2°48.073 11.7004 0.073797 0.380923 -0.617504
2010-12-06 08:58:01 51°24.876 2°48.069 11.7131 0.073797 0.380934 -0.58268
2010-12-06 08:58:06 51°24.875 2°48.065 11.7126 0.073797 0.380945 -0.58268
2010-12-06 08:58:11 51°24.873 2°48.062 11.7098 0.073797 0.380945 -0.58268
2010-12-06 08:58:16 51°24.871 2°48.058 11.7094 0.073797 0.380951 -0.58268
2010-12-06 08:58:21 51°24.87 2°48.054 11.728 0.073797 0.380951 -0.58268
2010-12-06 08:58:26 51°24.868 2°48.051 11.7246 0.073797 0.380951 -0.58268
2010-12-06 08:58:31 51°24.866 2°48.048 11.7167 0.073797 0.380962 -0.58268